Time,TemperatureF,DewpointF,PressureIn,WindDirection,WindDirectionDegrees,WindSpeedMPH,WindSpeedGustMPH,Humidity,HourlyPrecipIn,Conditions,Clouds,dailyrainin,SoftwareType,DateUTC
2013-04-25 00:00:00,46.0,1.0,29.91,SW,226,2.2,7.6,15,0.00,,---,0.00,VWS V14.01,2013-04-25 06:00:00,
2013-04-25 00:01:00,46.0,1.0,29.91,SW,225,2.7,2.7,15,0.00,,---,0.00,VWS V14.01,2013-04-25 06:01:00,
2013-04-25 00:04:00,45.9,0.8,29.91,SW,229,0.0,3.1,15,0.00,,---,0.00,VWS V14.01,2013-04-25 06:04:00,
2013-04-25 00:05:00,45.9,0.8,29.91,SW,229,0.0,3.1,15,0.00,,---,0.00,VWS V14.01,2013-04-25 06:05:00,
2013-04-25 00:06:00,45.9,0.8,29.91,SW,229,0.0,3.1,15,0.00,,---,0.00,VWS V14.01,2013-04-25 06:06:00,
2013-04-25 00:09:00,45.5,0.6,29.91,SW,229,0.0,3.1,15,0.00,,---,0.00,VWS V14.01,2013-04-25 06:09:00,
2013-04-25 00:10:00,45.5,0.6,29.91,SW,229,0.0,3.1,15,0.00,,---,0.00,VWS V14.01,2013-04-25 06:10:00,
2013-04-25 00:11:00,45.5,0.6,29.91,SW,229,0.0,3.1,15,0.00,,---,0.00,VWS V14.01,2013-04-25 06:11:00,
2013-04-25 00:14:00,45.1,0.3,29.91,SW,229,0.0,3.1,15,0.00,,---,0.00,VWS V14.01,2013-04-25 06:14:00,
2013-04-25 00:15:00,45.1,0.3,29.91,SW,229,0.0,0.0,15,0.00,,---,0.00,VWS V14.01,2013-04-25 06:15:00,
2013-04-25 00:16:00,45.1,0.3,29.91,SW,229,0.0,0.0,15,0.00,,---,0.00,VWS V14.01,2013-04-25 06:16:00,
2013-04-25 00:19:00,45.0,0.1,29.91,SW,231,0.0,2.7,15,0.00,,---,0.00,VWS V14.01,2013-04-25 06:19:00,
2013-04-25 00:20:00,44.8,0.0,29.91,SW,231,0.0,2.7,15,0.00,,---,0.00,VWS V14.01,2013-04-25 06:20:00,
2013-04-25 00:21:00,44.8,0.0,29.91,SW,232,2.2,2.7,15,0.00,,---,0.00,VWS V14.01,2013-04-25 06:21:00,
2013-04-25 00:22:00,44.6,-0.2,29.91,SW,232,2.2,2.7,15,0.00,,---,0.00,VWS V14.01,2013-04-25 06:22:00,
2013-04-25 00:25:00,44.6,-0.2,29.91,SW,233,0.0,2.7,15,0.00,,---,0.00,VWS V14.01,2013-04-25 06:25:00,
2013-04-25 00:26:00,44.6,-0.2,29.91,SW,233,0.0,2.7,15,0.00,,---,0.00,VWS V14.01,2013-04-25 06:26:00,
2013-04-25 00:27:00,44.6,-0.2,29.91,SW,233,2.2,2.7,15,0.00,,---,0.00,VWS V14.01,2013-04-25 06:27:00,
2013-04-25 00:30:00,44.4,-0.3,29.91,SW,221,2.2,2.2,15,0.00,,---,0.00,VWS V14.01,2013-04-25 06:30:00,
2013-04-25 00:31:00,44.4,-0.3,29.91,SW,221,0.0,2.2,15,0.00,,---,0.00,VWS V14.01,2013-04-25 06:31:00,
2013-04-25 00:32:00,44.4,-0.3,29.91,SW,220,2.2,2.2,15,0.00,,---,0.00,VWS V14.01,2013-04-25 06:32:00,
2013-04-25 00:35:00,44.6,-0.2,29.91,SSW,207,0.0,3.1,15,0.00,,---,0.00,VWS V14.01,2013-04-25 06:35:00,
2013-04-25 00:36:00,44.6,-0.2,29.91,SSW,193,3.6,3.6,15,0.00,,---,0.00,VWS V14.01,2013-04-25 06:36:00,
2013-04-25 00:37:00,44.6,-0.2,29.91,South,189,2.2,4.0,15,0.00,,---,0.00,VWS V14.01,2013-04-25 06:37:00,
2013-04-25 00:40:00,44.8,0.0,29.91,South,183,3.1,4.0,15,0.00,,---,0.00,VWS V14.01,2013-04-25 06:40:00,
2013-04-25 00:41:00,44.8,0.0,29.91,SW,225,3.6,4.0,15,0.00,,---,0.00,VWS V14.01,2013-04-25 06:41:00,
2013-04-25 00:42:00,44.8,0.0,29.91,SW,223,2.2,4.0,15,0.00,,---,0.00,VWS V14.01,2013-04-25 06:42:00,
2013-04-25 00:45:00,44.8,0.0,29.91,SSW,192,0.0,0.0,15,0.00,,---,0.00,VWS V14.01,2013-04-25 06:45:00,
2013-04-25 00:46:00,44.6,-0.2,29.91,SSW,192,0.0,0.0,15,0.00,,---,0.00,VWS V14.01,2013-04-25 06:46:00,
2013-04-25 00:47:00,44.6,-0.2,29.91,SSW,206,0.0,2.7,15,0.00,,---,0.00,VWS V14.01,2013-04-25 06:47:00,
2013-04-25 00:48:00,44.6,-0.2,29.91,SSW,206,0.0,2.7,15,0.00,,---,0.00,VWS V14.01,2013-04-25 06:48:00,
2013-04-25 00:50:00,44.8,0.0,29.91,WNW,291,2.7,3.6,15,0.00,,---,0.00,VWS V14.01,2013-04-25 06:50:00,
2013-04-25 00:51:00,44.8,0.0,29.91,WNW,287,2.7,3.6,15,0.00,,---,0.00,VWS V14.01,2013-04-25 06:51:00,
2013-04-25 00:52:00,44.8,0.0,29.91,WSW,253,2.2,4.0,15,0.00,,---,0.00,VWS V14.01,2013-04-25 06:52:00,
2013-04-25 00:53:00,45.0,0.1,29.91,WSW,250,0.0,4.0,15,0.00,,---,0.00,VWS V14.01,2013-04-25 06:53:00,
2013-04-25 00:56:00,45.1,0.3,29.91,West,279,4.0,4.0,15,0.00,,---,0.00,VWS V14.01,2013-04-25 06:56:00,
2013-04-25 00:58:00,45.1,0.3,29.91,SSW,212,2.7,4.0,15,0.00,,---,0.00,VWS V14.01,2013-04-25 06:58:00,
2013-04-25 01:01:00,45.1,0.3,29.88,SSW,200,2.7,4.0,15,0.00,,---,0.00,VWS V14.01,2013-04-25 07:01:00,
2013-04-25 01:02:00,45.3,0.4,29.88,SSW,200,0.0,4.0,15,0.00,,---,0.00,VWS V14.01,2013-04-25 07:02:00,
2013-04-25 01:03:00,45.3,0.4,29.88,SSW,199,2.2,4.0,15,0.00,,---,0.00,VWS V14.01,2013-04-25 07:03:00,
2013-04-25 01:07:00,45.0,0.1,29.88,SSW,211,2.7,4.0,15,0.00,,---,0.00,VWS V14.01,2013-04-25 07:07:00,
2013-04-25 01:08:00,45.0,0.1,29.88,SSW,211,6.3,6.3,15,0.00,,---,0.00,VWS V14.01,2013-04-25 07:08:00,
2013-04-25 01:12:00,45.1,0.3,29.88,SSW,193,0.0,6.3,15,0.00,,---,0.00,VWS V14.01,2013-04-25 07:12:00,
2013-04-25 01:13:00,45.1,0.3,29.88,SSW,193,0.0,6.3,15,0.00,,---,0.00,VWS V14.01,2013-04-25 07:13:00,
2013-04-25 01:14:00,45.1,0.3,29.88,SW,229,2.7,6.3,15,0.00,,---,0.00,VWS V14.01,2013-04-25 07:14:00,
2013-04-25 01:17:00,45.1,0.3,29.88,SW,229,2.2,3.1,15,0.00,,---,0.00,VWS V14.01,2013-04-25 07:17:00,
2013-04-25 01:18:00,45.1,0.3,29.88,SW,229,2.2,3.1,15,0.00,,---,0.00,VWS V14.01,2013-04-25 07:18:00,
2013-04-25 01:19:00,44.8,0.0,29.88,SW,229,0.0,3.1,15,0.00,,---,0.00,VWS V14.01,2013-04-25 07:19:00,
2013-04-25 01:22:00,44.6,-0.2,29.88,SSW,204,2.7,3.1,15,0.00,,---,0.00,VWS V14.01,2013-04-25 07:22:00,
2013-04-25 01:23:00,44.6,-0.2,29.88,SSW,204,2.2,3.1,15,0.00,,---,0.00,VWS V14.01,2013-04-25 07:23:00,
2013-04-25 01:24:00,44.6,-0.2,29.88,SSW,204,2.7,3.1,15,0.00,,---,0.00,VWS V14.01,2013-04-25 07:24:00,
2013-04-25 01:27:00,44.4,-0.3,29.88,SSW,208,2.7,3.1,15,0.00,,---,0.00,VWS V14.01,2013-04-25 07:27:00,
2013-04-25 01:28:00,44.2,-0.5,29.88,SSW,209,2.2,3.1,15,0.00,,---,0.00,VWS V14.01,2013-04-25 07:28:00,
2013-04-25 01:29:00,44.2,-0.5,29.88,SW,221,0.0,3.1,15,0.00,,---,0.00,VWS V14.01,2013-04-25 07:29:00,
2013-04-25 01:33:00,44.1,-0.6,29.88,SW,227,2.7,3.1,15,0.00,,---,0.00,VWS V14.01,2013-04-25 07:33:00,
2013-04-25 01:34:00,44.1,-0.6,29.88,SW,230,2.7,3.1,15,0.00,,---,0.00,VWS V14.01,2013-04-25 07:34:00,
2013-04-25 01:38:00,43.9,-0.8,29.88,SW,227,2.7,3.6,15,0.00,,---,0.00,VWS V14.01,2013-04-25 07:38:00,
2013-04-25 01:39:00,43.9,-0.8,29.88,SW,231,2.2,3.6,15,0.00,,---,0.00,VWS V14.01,2013-04-25 07:39:00,
2013-04-25 01:40:00,43.9,-0.8,29.88,SSW,213,3.6,3.6,15,0.00,,---,0.00,VWS V14.01,2013-04-25 07:40:00,
2013-04-25 01:43:00,43.7,-0.9,29.88,SW,216,3.6,3.6,15,0.00,,---,0.00,VWS V14.01,2013-04-25 07:43:00,
2013-04-25 01:44:00,43.7,-0.9,29.88,SW,218,3.6,3.6,15,0.00,,---,0.00,VWS V14.01,2013-04-25 07:44:00,
2013-04-25 01:45:00,43.7,-0.9,29.88,SW,218,3.1,3.6,15,0.00,,---,0.00,VWS V14.01,2013-04-25 07:45:00,
2013-04-25 01:49:00,43.9,-0.8,29.88,SW,230,2.7,3.6,15,0.00,,---,0.00,VWS V14.01,2013-04-25 07:49:00,
2013-04-25 01:50:00,43.9,-0.8,29.88,SW,231,2.7,3.6,15,0.00,,---,0.00,VWS V14.01,2013-04-25 07:50:00,
2013-04-25 01:54:00,44.1,-0.6,29.88,SSW,200,0.0,4.0,15,0.00,,---,0.00,VWS V14.01,2013-04-25 07:54:00,
2013-04-25 01:55:00,44.1,-0.6,29.88,SSW,200,0.0,4.0,15,0.00,,---,0.00,VWS V14.01,2013-04-25 07:55:00,
2013-04-25 01:59:00,43.9,-0.8,29.88,SSW,200,0.0,4.0,15,0.00,,---,0.00,VWS V14.01,2013-04-25 07:59:00,
2013-04-25 02:00:00,43.9,-0.8,29.88,SSW,200,0.0,4.0,15,0.00,,---,0.00,VWS V14.01,2013-04-25 08:00:00,
2013-04-25 02:01:00,43.7,-0.9,29.88,SSW,200,0.0,0.0,15,0.00,,---,0.00,VWS V14.01,2013-04-25 08:01:00,
2013-04-25 02:04:00,43.7,-0.9,29.88,SSW,200,0.0,2.2,15,0.00,,---,0.00,VWS V14.01,2013-04-25 08:04:00,
2013-04-25 02:05:00,43.5,-1.1,29.88,SSW,198,2.7,2.7,15,0.00,,---,0.00,VWS V14.01,2013-04-25 08:05:00,
2013-04-25 02:06:00,43.5,-1.1,29.88,SSW,200,2.2,3.6,15,0.00,,---,0.00,VWS V14.01,2013-04-25 08:06:00,
2013-04-25 02:09:00,43.5,-1.1,29.88,SSW,200,0.0,3.6,15,0.00,,---,0.00,VWS V14.01,2013-04-25 08:09:00,
2013-04-25 02:10:00,43.5,-1.1,29.88,SSW,200,0.0,3.6,15,0.00,,---,0.00,VWS V14.01,2013-04-25 08:10:00,
2013-04-25 02:11:00,43.5,-1.1,29.88,SSW,200,0.0,3.6,15,0.00,,---,0.00,VWS V14.01,2013-04-25 08:11:00,
2013-04-25 02:15:00,43.5,-1.1,29.88,SSW,200,0.0,3.6,15,0.00,,---,0.00,VWS V14.01,2013-04-25 08:15:00,
2013-04-25 02:16:00,43.5,-1.1,29.88,SSW,200,0.0,0.0,15,0.00,,---,0.00,VWS V14.01,2013-04-25 08:16:00,
2013-04-25 02:20:00,43.5,-1.1,29.88,SSW,206,2.7,2.7,15,0.00,,---,0.00,VWS V14.01,2013-04-25 08:20:00,
2013-04-25 02:21:00,43.5,-1.1,29.88,SSW,207,2.7,2.7,15,0.00,,---,0.00,VWS V14.01,2013-04-25 08:21:00,
2013-04-25 02:25:00,43.5,-1.1,29.88,SSW,213,2.2,2.7,15,0.00,,---,0.00,VWS V14.01,2013-04-25 08:25:00,
2013-04-25 02:26:00,43.7,-0.9,29.88,SSW,213,2.7,2.7,15,0.00,,---,0.00,VWS V14.01,2013-04-25 08:26:00,
2013-04-25 02:27:00,43.5,-1.1,29.88,SSW,212,0.0,2.7,15,0.00,,---,0.00,VWS V14.01,2013-04-25 08:27:00,
2013-04-25 02:30:00,43.0,-1.5,29.88,SSW,212,0.0,2.7,15,0.00,,---,0.00,VWS V14.01,2013-04-25 08:30:00,
2013-04-25 02:31:00,42.8,-1.6,29.88,SSW,212,2.2,2.7,15,0.00,,---,0.00,VWS V14.01,2013-04-25 08:31:00,
2013-04-25 02:32:00,42.3,-0.7,29.88,South,178,2.2,4.0,16,0.00,,---,0.00,VWS V14.01,2013-04-25 08:32:00,
2013-04-25 02:35:00,41.7,-1.2,29.88,South,178,0.0,4.0,16,0.00,,---,0.00,VWS V14.01,2013-04-25 08:35:00,
2013-04-25 02:36:00,41.7,-1.2,29.88,South,178,2.7,4.0,16,0.00,,---,0.00,VWS V14.01,2013-04-25 08:36:00,
2013-04-25 02:38:00,41.5,-1.3,29.88,SSW,194,0.0,4.0,16,0.00,,---,0.00,VWS V14.01,2013-04-25 08:38:00,
2013-04-25 02:41:00,41.5,-1.3,29.88,SW,231,0.0,4.0,16,0.00,,---,0.00,VWS V14.01,2013-04-25 08:41:00,
2013-04-25 02:43:00,41.5,-1.3,29.88,SSW,207,2.7,4.0,16,0.00,,---,0.00,VWS V14.01,2013-04-25 08:43:00,
2013-04-25 02:46:00,41.7,-1.2,29.88,SSW,193,2.2,2.7,16,0.00,,---,0.00,VWS V14.01,2013-04-25 08:46:00,
2013-04-25 02:47:00,41.7,1.4,29.88,SSW,193,2.2,2.7,18,0.00,,---,0.00,VWS V14.01,2013-04-25 08:47:00,
2013-04-25 02:48:00,41.7,1.4,29.88,SSW,193,0.0,2.7,18,0.00,,---,0.00,VWS V14.01,2013-04-25 08:48:00,
2013-04-25 02:51:00,41.4,-1.5,29.88,SSW,193,0.0,2.7,16,0.00,,---,0.00,VWS V14.01,2013-04-25 08:51:00,
2013-04-25 02:52:00,41.2,-1.6,29.88,SSW,193,0.0,2.7,16,0.00,,---,0.00,VWS V14.01,2013-04-25 08:52:00,
2013-04-25 02:53:00,41.0,0.8,29.88,SSW,193,0.0,2.7,18,0.00,,---,0.00,VWS V14.01,2013-04-25 08:53:00,
2013-04-25 02:56:00,40.6,-2.0,29.88,SSW,193,0.0,2.7,16,0.00,,---,0.00,VWS V14.01,2013-04-25 08:56:00,
2013-04-25 02:57:00,40.6,-2.0,29.88,SSW,193,0.0,2.7,16,0.00,,---,0.00,VWS V14.01,2013-04-25 08:57:00,
2013-04-25 02:58:00,40.6,-2.0,29.88,SSW,193,0.0,2.7,16,0.00,,---,0.00,VWS V14.01,2013-04-25 08:58:00,
2013-04-25 03:01:00,40.6,-2.0,29.85,SSW,193,0.0,0.0,16,0.00,,---,0.00,VWS V14.01,2013-04-25 09:01:00,
2013-04-25 03:02:00,40.6,-2.0,29.85,SSW,193,0.0,0.0,16,0.00,,---,0.00,VWS V14.01,2013-04-25 09:02:00,
2013-04-25 03:03:00,40.8,0.6,29.85,SSW,193,2.7,2.7,18,0.00,,---,0.00,VWS V14.01,2013-04-25 09:03:00,
2013-04-25 03:07:00,40.8,-1.9,29.85,SSW,209,0.0,3.1,16,0.00,,---,0.00,VWS V14.01,2013-04-25 09:07:00,
2013-04-25 03:09:00,41.0,-1.7,29.85,SSW,209,0.0,3.1,16,0.00,,---,0.00,VWS V14.01,2013-04-25 09:09:00,
2013-04-25 03:12:00,41.2,-1.6,29.85,SSW,209,0.0,3.1,16,0.00,,---,0.00,VWS V14.01,2013-04-25 09:12:00,
2013-04-25 03:13:00,41.2,-1.6,29.85,SSW,209,2.2,3.1,16,0.00,,---,0.00,VWS V14.01,2013-04-25 09:13:00,
2013-04-25 03:14:00,41.2,-1.6,29.85,SSW,209,2.2,3.1,16,0.00,,---,0.00,VWS V14.01,2013-04-25 09:14:00,
2013-04-25 03:17:00,41.2,-1.6,29.85,SSW,209,0.0,2.7,16,0.00,,---,0.00,VWS V14.01,2013-04-25 09:17:00,
2013-04-25 03:19:00,41.4,-1.5,29.85,SSW,209,2.2,2.7,16,0.00,,---,0.00,VWS V14.01,2013-04-25 09:19:00,
2013-04-25 03:22:00,41.5,-1.3,29.85,SSW,209,0.0,2.7,16,0.00,,---,0.00,VWS V14.01,2013-04-25 09:22:00,
2013-04-25 03:23:00,41.5,-1.3,29.85,SSW,209,2.7,2.7,16,0.00,,---,0.00,VWS V14.01,2013-04-25 09:23:00,
2013-04-25 03:24:00,41.7,1.4,29.85,SSW,209,2.2,2.7,18,0.00,,---,0.00,VWS V14.01,2013-04-25 09:24:00,
2013-04-25 03:25:00,41.7,1.4,29.85,SSW,209,2.2,2.7,18,0.00,,---,0.00,VWS V14.01,2013-04-25 09:25:00,
2013-04-25 03:27:00,41.4,-1.5,29.85,SSW,209,2.2,2.7,16,0.00,,---,0.00,VWS V14.01,2013-04-25 09:27:00,
2013-04-25 03:29:00,41.4,1.0,29.85,SSW,209,0.0,2.7,18,0.00,,---,0.00,VWS V14.01,2013-04-25 09:29:00,
2013-04-25 03:30:00,41.2,-1.6,29.85,SSW,209,0.0,0.0,16,0.00,,---,0.00,VWS V14.01,2013-04-25 09:30:00,
2013-04-25 03:32:00,41.2,-1.6,29.85,SSW,205,3.6,3.6,16,0.00,,---,0.00,VWS V14.01,2013-04-25 09:32:00,
2013-04-25 03:33:00,41.2,-1.6,29.85,SSW,205,3.6,3.6,16,0.00,,---,0.00,VWS V14.01,2013-04-25 09:33:00,
2013-04-25 03:34:00,41.2,-1.6,29.85,SSW,205,3.1,3.6,16,0.00,,---,0.00,VWS V14.01,2013-04-25 09:34:00,
2013-04-25 03:36:00,41.0,0.8,29.85,SSW,206,2.7,3.6,18,0.00,,---,0.00,VWS V14.01,2013-04-25 09:36:00,
2013-04-25 03:38:00,40.8,-1.9,29.85,SSW,207,2.2,3.6,16,0.00,,---,0.00,VWS V14.01,2013-04-25 09:38:00,
2013-04-25 03:39:00,40.6,-2.0,29.85,SSW,207,2.7,3.6,16,0.00,,---,0.00,VWS V14.01,2013-04-25 09:39:00,
2013-04-25 03:40:00,40.6,-2.0,29.85,SSW,208,2.7,3.6,16,0.00,,---,0.00,VWS V14.01,2013-04-25 09:40:00,
2013-04-25 03:42:00,40.6,-2.0,29.85,SW,214,2.2,3.6,16,0.00,,---,0.00,VWS V14.01,2013-04-25 09:42:00,
2013-04-25 03:43:00,40.8,-1.9,29.85,SW,215,3.1,3.6,16,0.00,,---,0.00,VWS V14.01,2013-04-25 09:43:00,
2013-04-25 03:44:00,40.8,-1.9,29.85,SW,217,4.0,4.0,16,0.00,,---,0.00,VWS V14.01,2013-04-25 09:44:00,
2013-04-25 03:45:00,41.0,-1.7,29.85,SSW,212,4.0,4.0,16,0.00,,---,0.00,VWS V14.01,2013-04-25 09:45:00,
2013-04-25 03:47:00,41.2,-1.6,29.85,SSW,211,4.0,4.0,16,0.00,,---,0.00,VWS V14.01,2013-04-25 09:47:00,
2013-04-25 03:48:00,41.5,-1.3,29.85,SSW,209,4.5,4.5,16,0.00,,---,0.00,VWS V14.01,2013-04-25 09:48:00,
2013-04-25 03:49:00,41.7,-1.2,29.85,SW,215,4.0,4.5,16,0.00,,---,0.00,VWS V14.01,2013-04-25 09:49:00,
2013-04-25 03:50:00,42.1,-0.9,29.85,SSW,207,5.4,5.4,16,0.00,,---,0.00,VWS V14.01,2013-04-25 09:50:00,
2013-04-25 03:52:00,42.4,-0.6,29.85,SSW,207,4.0,5.4,16,0.00,,---,0.00,VWS V14.01,2013-04-25 09:52:00,
2013-04-25 03:53:00,42.4,-0.6,29.85,SSW,211,3.6,5.4,16,0.00,,---,0.00,VWS V14.01,2013-04-25 09:53:00,
2013-04-25 03:54:00,42.8,-1.6,29.85,SSW,211,3.6,5.4,15,0.00,,---,0.00,VWS V14.01,2013-04-25 09:54:00,
2013-04-25 03:56:00,43.0,-1.5,29.85,SSW,203,4.9,5.4,15,0.00,,---,0.00,VWS V14.01,2013-04-25 09:56:00,
2013-04-25 03:57:00,43.2,-1.4,29.85,SSW,204,4.0,5.4,15,0.00,,---,0.00,VWS V14.01,2013-04-25 09:57:00,
2013-04-25 03:58:00,43.3,-1.2,29.85,SSW,204,4.0,5.4,15,0.00,,---,0.00,VWS V14.01,2013-04-25 09:58:00,
2013-04-25 03:59:00,43.3,-1.2,29.85,SSW,213,4.9,5.4,15,0.00,,---,0.00,VWS V14.01,2013-04-25 09:59:00,
2013-04-25 04:02:00,43.3,-1.2,29.85,SSW,208,3.1,4.0,15,0.00,,---,0.00,VWS V14.01,2013-04-25 10:02:00,
2013-04-25 04:03:00,43.3,-1.2,29.85,SSW,208,3.1,4.0,15,0.00,,---,0.00,VWS V14.01,2013-04-25 10:03:00,
2013-04-25 04:05:00,43.2,-1.4,29.85,SSW,209,3.1,4.0,15,0.00,,---,0.00,VWS V14.01,2013-04-25 10:05:00,
2013-04-25 04:07:00,43.0,-1.5,29.85,SW,218,2.7,4.0,15,0.00,,---,0.00,VWS V14.01,2013-04-25 10:07:00,
2013-04-25 04:08:00,43.0,-1.5,29.85,SSW,207,3.1,4.0,15,0.00,,---,0.00,VWS V14.01,2013-04-25 10:08:00,
2013-04-25 04:09:00,42.8,-1.6,29.85,SSW,207,3.6,4.0,15,0.00,,---,0.00,VWS V14.01,2013-04-25 10:09:00,
2013-04-25 04:10:00,42.8,-1.6,29.85,SSW,209,3.6,4.0,15,0.00,,---,0.00,VWS V14.01,2013-04-25 10:10:00,
2013-04-25 04:13:00,42.8,-1.6,29.85,SSW,210,3.6,4.0,15,0.00,,---,0.00,VWS V14.01,2013-04-25 10:13:00,
2013-04-25 04:14:00,42.8,-1.6,29.85,SSW,212,3.6,4.0,15,0.00,,---,0.00,VWS V14.01,2013-04-25 10:14:00,
2013-04-25 04:15:00,42.8,-1.6,29.85,SSW,208,3.6,3.6,15,0.00,,---,0.00,VWS V14.01,2013-04-25 10:15:00,
2013-04-25 04:18:00,43.0,-1.5,29.85,SW,215,2.7,4.9,15,0.00,,---,0.00,VWS V14.01,2013-04-25 10:18:00,
2013-04-25 04:19:00,43.0,-1.5,29.85,SW,215,2.7,4.9,15,0.00,,---,0.00,VWS V14.01,2013-04-25 10:19:00,
2013-04-25 04:20:00,43.0,-1.5,29.85,SSW,210,3.1,4.9,15,0.00,,---,0.00,VWS V14.01,2013-04-25 10:20:00,
2013-04-25 04:24:00,42.8,-1.6,29.85,SW,216,2.7,4.9,15,0.00,,---,0.00,VWS V14.01,2013-04-25 10:24:00,
2013-04-25 04:25:00,42.8,-1.6,29.85,SW,216,2.7,4.9,15,0.00,,---,0.00,VWS V14.01,2013-04-25 10:25:00,
2013-04-25 04:26:00,42.8,-1.6,29.85,SW,216,2.2,4.9,15,0.00,,---,0.00,VWS V14.01,2013-04-25 10:26:00,
2013-04-25 04:29:00,42.4,-0.6,29.85,SW,216,3.1,4.9,16,0.00,,---,0.00,VWS V14.01,2013-04-25 10:29:00,
2013-04-25 04:30:00,42.4,-0.6,29.85,SW,217,3.1,4.9,16,0.00,,---,0.00,VWS V14.01,2013-04-25 10:30:00,
2013-04-25 04:31:00,42.4,-0.6,29.85,SW,220,3.1,3.1,16,0.00,,---,0.00,VWS V14.01,2013-04-25 10:31:00,
2013-04-25 04:34:00,42.4,-0.6,29.85,SW,220,2.2,3.1,16,0.00,,---,0.00,VWS V14.01,2013-04-25 10:34:00,
2013-04-25 04:35:00,42.4,-0.6,29.85,SW,220,2.2,3.1,16,0.00,,---,0.00,VWS V14.01,2013-04-25 10:35:00,
2013-04-25 04:36:00,42.4,-0.6,29.85,SW,220,2.2,3.1,16,0.00,,---,0.00,VWS V14.01,2013-04-25 10:36:00,
2013-04-25 04:40:00,42.4,-0.6,29.85,SW,220,3.1,3.1,16,0.00,,---,0.00,VWS V14.01,2013-04-25 10:40:00,
2013-04-25 04:41:00,42.3,-0.7,29.85,SW,220,2.7,3.1,16,0.00,,---,0.00,VWS V14.01,2013-04-25 10:41:00,
2013-04-25 04:42:00,42.3,-0.7,29.85,SW,220,2.7,3.1,16,0.00,,---,0.00,VWS V14.01,2013-04-25 10:42:00,
2013-04-25 04:45:00,42.3,-0.7,29.85,SW,220,2.2,2.2,16,0.00,,---,0.00,VWS V14.01,2013-04-25 10:45:00,
2013-04-25 04:46:00,42.4,-0.6,29.85,SW,220,2.7,2.7,16,0.00,,---,0.00,VWS V14.01,2013-04-25 10:46:00,
2013-04-25 04:48:00,42.3,-0.7,29.85,SW,232,2.7,3.6,16,0.00,,---,0.00,VWS V14.01,2013-04-25 10:48:00,
2013-04-25 04:50:00,42.3,-0.7,29.85,SW,232,2.7,3.6,16,0.00,,---,0.00,VWS V14.01,2013-04-25 10:50:00,
2013-04-25 04:51:00,42.3,-0.7,29.85,SW,232,3.1,3.6,16,0.00,,---,0.00,VWS V14.01,2013-04-25 10:51:00,
2013-04-25 04:53:00,42.3,-0.7,29.85,SW,235,2.2,3.6,16,0.00,,---,0.00,VWS V14.01,2013-04-25 10:53:00,
2013-04-25 04:55:00,42.3,-0.7,29.85,SW,235,2.2,3.6,16,0.00,,---,0.00,VWS V14.01,2013-04-25 10:55:00,
2013-04-25 04:56:00,42.3,-0.7,29.85,SW,235,3.1,3.6,16,0.00,,---,0.00,VWS V14.01,2013-04-25 10:56:00,
2013-04-25 04:57:00,42.3,-0.7,29.85,SW,235,2.7,3.6,16,0.00,,---,0.00,VWS V14.01,2013-04-25 10:57:00,
2013-04-25 04:59:00,42.1,-0.9,29.85,SW,235,2.2,3.6,16,0.00,,---,0.00,VWS V14.01,2013-04-25 10:59:00,
2013-04-25 05:01:00,42.1,-0.9,29.85,SW,235,3.6,3.6,16,0.00,,---,0.00,VWS V14.01,2013-04-25 11:01:00,
2013-04-25 05:02:00,42.1,-0.9,29.85,SW,235,3.1,3.6,16,0.00,,---,0.00,VWS V14.01,2013-04-25 11:02:00,
2013-04-25 05:04:00,41.9,-1.0,29.85,West,271,3.1,4.0,16,0.00,,---,0.00,VWS V14.01,2013-04-25 11:04:00,
2013-04-25 05:06:00,41.9,-1.0,29.85,West,271,3.6,4.0,16,0.00,,---,0.00,VWS V14.01,2013-04-25 11:06:00,
2013-04-25 05:07:00,41.9,-1.0,29.85,West,265,3.1,4.0,16,0.00,,---,0.00,VWS V14.01,2013-04-25 11:07:00,
2013-04-25 05:10:00,41.9,-1.0,29.85,West,276,3.1,4.0,16,0.00,,---,0.00,VWS V14.01,2013-04-25 11:10:00,
2013-04-25 05:11:00,41.9,-1.0,29.85,West,280,3.1,4.0,16,0.00,,---,0.00,VWS V14.01,2013-04-25 11:11:00,
2013-04-25 05:12:00,41.9,-1.0,29.85,West,280,3.6,4.0,16,0.00,,---,0.00,VWS V14.01,2013-04-25 11:12:00,
2013-04-25 05:15:00,41.9,-1.0,29.85,West,277,3.6,3.6,16,0.00,,---,0.00,VWS V14.01,2013-04-25 11:15:00,
2013-04-25 05:16:00,41.9,-1.0,29.82,West,279,3.6,3.6,16,0.00,,---,0.00,VWS V14.01,2013-04-25 11:16:00,
2013-04-25 05:17:00,41.9,-1.0,29.82,West,279,4.0,4.5,16,0.00,,---,0.00,VWS V14.01,2013-04-25 11:17:00,
2013-04-25 05:21:00,41.9,-1.0,29.82,West,279,3.6,4.5,16,0.00,,---,0.00,VWS V14.01,2013-04-25 11:21:00,
2013-04-25 05:22:00,41.9,-1.0,29.82,West,271,2.7,4.5,16,0.00,,---,0.00,VWS V14.01,2013-04-25 11:22:00,
2013-04-25 05:23:00,41.9,-1.0,29.82,West,271,2.7,4.5,16,0.00,,---,0.00,VWS V14.01,2013-04-25 11:23:00,
2013-04-25 05:26:00,41.9,-1.0,29.82,West,274,3.6,5.4,16,0.00,,---,0.00,VWS V14.01,2013-04-25 11:26:00,
2013-04-25 05:27:00,41.9,-1.0,29.82,WSW,256,3.6,5.4,16,0.00,,---,0.00,VWS V14.01,2013-04-25 11:27:00,
2013-04-25 05:28:00,41.9,-1.0,29.82,WSW,256,2.7,5.4,16,0.00,,---,0.00,VWS V14.01,2013-04-25 11:28:00,
2013-04-25 05:31:00,41.9,-1.0,29.82,WSW,256,3.1,3.6,16,0.00,,---,0.00,VWS V14.01,2013-04-25 11:31:00,
2013-04-25 05:32:00,41.9,-1.0,29.82,West,270,4.0,4.0,16,0.00,,---,0.00,VWS V14.01,2013-04-25 11:32:00,
2013-04-25 05:33:00,41.9,-1.0,29.82,West,270,3.1,4.0,16,0.00,,---,0.00,VWS V14.01,2013-04-25 11:33:00,
2013-04-25 05:36:00,42.1,-0.9,29.82,WNW,284,2.7,4.0,16,0.00,,---,0.00,VWS V14.01,2013-04-25 11:36:00,
2013-04-25 05:37:00,42.1,-0.9,29.82,WNW,283,2.7,4.0,16,0.00,,---,0.00,VWS V14.01,2013-04-25 11:37:00,
2013-04-25 05:38:00,42.1,-0.9,29.82,WNW,284,3.6,4.0,16,0.00,,---,0.00,VWS V14.01,2013-04-25 11:38:00,
2013-04-25 05:41:00,41.9,-1.0,29.82,West,280,4.0,4.9,16,0.00,,---,0.00,VWS V14.01,2013-04-25 11:41:00,
2013-04-25 05:42:00,41.9,-1.0,29.82,West,265,4.0,4.9,16,0.00,,---,0.00,VWS V14.01,2013-04-25 11:42:00,
2013-04-25 05:43:00,41.9,-1.0,29.82,West,266,3.1,4.9,16,0.00,,---,0.00,VWS V14.01,2013-04-25 11:43:00,
2013-04-25 05:46:00,41.9,-1.0,29.82,West,273,3.1,4.0,16,0.00,,---,0.00,VWS V14.01,2013-04-25 11:46:00,
2013-04-25 05:48:00,41.9,-1.0,29.82,WNW,283,3.6,4.0,16,0.00,,---,0.00,VWS V14.01,2013-04-25 11:48:00,
2013-04-25 05:49:00,41.9,-1.0,29.82,West,274,4.0,4.9,16,0.00,,---,0.00,VWS V14.01,2013-04-25 11:49:00,
2013-04-25 05:52:00,41.7,-1.2,29.82,WSW,257,2.7,4.9,16,0.00,,---,0.00,VWS V14.01,2013-04-25 11:52:00,
2013-04-25 05:53:00,41.7,-1.2,29.82,WSW,257,2.7,4.9,16,0.00,,---,0.00,VWS V14.01,2013-04-25 11:53:00,
2013-04-25 05:54:00,41.9,-1.0,29.82,West,259,3.6,4.9,16,0.00,,---,0.00,VWS V14.01,2013-04-25 11:54:00,
2013-04-25 05:57:00,41.9,-1.0,29.82,WSW,258,2.7,5.4,16,0.00,,---,0.00,VWS V14.01,2013-04-25 11:57:00,
2013-04-25 05:58:00,41.9,-1.0,29.82,WSW,251,3.6,5.4,16,0.00,,---,0.00,VWS V14.01,2013-04-25 11:58:00,
2013-04-25 05:59:00,41.9,-1.0,29.82,WSW,252,4.0,5.4,16,0.00,,---,0.00,VWS V14.01,2013-04-25 11:59:00,
2013-04-25 06:02:00,41.9,1.5,29.82,SW,234,4.0,4.0,18,0.00,,---,0.00,VWS V14.01,2013-04-25 12:02:00,
2013-04-25 06:03:00,41.7,1.4,29.82,WSW,255,3.6,4.0,18,0.00,,---,0.00,VWS V14.01,2013-04-25 12:03:00,
2013-04-25 06:04:00,41.7,1.4,29.82,WSW,254,2.7,4.0,18,0.00,,---,0.00,VWS V14.01,2013-04-25 12:04:00,
2013-04-25 06:07:00,41.5,1.2,29.82,WSW,244,3.6,5.4,18,0.00,,---,0.00,VWS V14.01,2013-04-25 12:07:00,
2013-04-25 06:08:00,41.5,1.2,29.82,WSW,249,3.6,5.4,18,0.00,,---,0.00,VWS V14.01,2013-04-25 12:08:00,
2013-04-25 06:09:00,41.5,1.2,29.82,SSW,210,3.1,5.4,18,0.00,,---,0.00,VWS V14.01,2013-04-25 12:09:00,
2013-04-25 06:12:00,41.5,1.2,29.82,South,183,4.0,5.4,18,0.00,,---,0.00,VWS V14.01,2013-04-25 12:12:00,
2013-04-25 06:13:00,41.5,1.2,29.82,SW,231,2.7,5.4,18,0.00,,---,0.00,VWS V14.01,2013-04-25 12:13:00,
2013-04-25 06:14:00,41.5,1.2,29.82,WSW,257,3.6,5.4,18,0.00,,---,0.00,VWS V14.01,2013-04-25 12:14:00,
2013-04-25 06:15:00,41.4,1.0,29.82,WSW,258,3.1,5.4,18,0.00,,---,0.00,VWS V14.01,2013-04-25 12:15:00,
2013-04-25 06:18:00,41.4,1.0,29.85,SW,234,3.1,3.6,18,0.00,,---,0.00,VWS V14.01,2013-04-25 12:18:00,
2013-04-25 06:19:00,41.2,0.9,29.85,WSW,247,3.1,4.0,18,0.00,,---,0.00,VWS V14.01,2013-04-25 12:19:00,
2013-04-25 06:20:00,41.2,0.9,29.85,WSW,247,2.2,4.0,18,0.00,,---,0.00,VWS V14.01,2013-04-25 12:20:00,
2013-04-25 06:23:00,41.2,0.9,29.85,SW,231,4.0,4.0,18,0.00,,---,0.00,VWS V14.01,2013-04-25 12:23:00,
2013-04-25 06:24:00,41.2,0.9,29.85,WSW,244,2.7,4.0,18,0.00,,---,0.00,VWS V14.01,2013-04-25 12:24:00,
2013-04-25 06:25:00,41.0,0.8,29.85,SW,221,2.7,4.0,18,0.00,,---,0.00,VWS V14.01,2013-04-25 12:25:00,
2013-04-25 06:29:00,41.0,0.8,29.85,SW,236,2.7,4.9,18,0.00,,---,0.00,VWS V14.01,2013-04-25 12:29:00,
2013-04-25 06:30:00,41.0,0.8,29.85,WSW,254,3.6,3.6,18,0.00,,---,0.00,VWS V14.01,2013-04-25 12:30:00,
2013-04-25 06:34:00,40.8,0.6,29.85,WSW,251,3.1,4.0,18,0.00,,---,0.00,VWS V14.01,2013-04-25 12:34:00,
2013-04-25 06:35:00,40.8,0.6,29.85,WSW,238,3.1,4.0,18,0.00,,---,0.00,VWS V14.01,2013-04-25 12:35:00,
2013-04-25 06:36:00,40.8,0.6,29.85,WSW,250,3.6,4.0,18,0.00,,---,0.00,VWS V14.01,2013-04-25 12:36:00,
2013-04-25 06:40:00,40.6,3.8,29.85,West,263,5.4,5.4,21,0.00,,---,0.00,VWS V14.01,2013-04-25 12:40:00,
2013-04-25 06:41:00,40.8,3.9,29.85,SW,219,4.9,5.4,21,0.00,,---,0.00,VWS V14.01,2013-04-25 12:41:00,
2013-04-25 06:45:00,40.8,3.9,29.85,WSW,249,3.6,3.6,21,0.00,,---,0.00,VWS V14.01,2013-04-25 12:45:00,
2013-04-25 06:46:00,40.8,3.9,29.85,SSW,211,2.7,4.0,21,0.00,,---,0.00,VWS V14.01,2013-04-25 12:46:00,
2013-04-25 06:51:00,41.0,4.1,29.85,WNW,286,3.6,5.8,21,0.00,,---,0.00,VWS V14.01,2013-04-25 12:51:00,
2013-04-25 06:52:00,41.0,4.1,29.85,SW,236,4.0,5.8,21,0.00,,---,0.00,VWS V14.01,2013-04-25 12:52:00,
2013-04-25 06:56:00,41.2,4.2,29.85,SSW,208,4.0,5.8,21,0.00,,---,0.00,VWS V14.01,2013-04-25 12:56:00,
2013-04-25 06:57:00,41.2,4.2,29.85,WSW,254,5.4,5.8,21,0.00,,---,0.00,VWS V14.01,2013-04-25 12:57:00,
2013-04-25 07:01:00,41.2,4.2,29.85,SW,227,2.7,3.1,21,0.00,,---,0.00,VWS V14.01,2013-04-25 13:01:00,
2013-04-25 07:02:00,41.2,4.2,29.85,West,259,3.6,4.0,21,0.00,,---,0.00,VWS V14.01,2013-04-25 13:02:00,
2013-04-25 07:06:00,41.2,4.2,29.85,West,264,2.7,4.0,21,0.00,,---,0.00,VWS V14.01,2013-04-25 13:06:00,
2013-04-25 07:07:00,41.4,4.4,29.85,West,265,2.2,4.0,21,0.00,,---,0.00,VWS V14.01,2013-04-25 13:07:00,
2013-04-25 07:11:00,41.5,6.5,29.85,West,265,2.2,4.0,23,0.00,,---,0.00,VWS V14.01,2013-04-25 13:11:00,
2013-04-25 07:12:00,41.5,4.5,29.85,West,265,2.7,4.0,21,0.00,,---,0.00,VWS V14.01,2013-04-25 13:12:00,
2013-04-25 07:13:00,41.7,6.7,29.85,West,261,2.2,4.0,23,0.00,,---,0.00,VWS V14.01,2013-04-25 13:13:00,
2013-04-25 07:16:00,42.1,7.0,29.85,SW,229,2.7,4.0,23,0.00,,---,0.00,VWS V14.01,2013-04-25 13:16:00,
2013-04-25 07:17:00,42.3,7.1,29.85,SW,229,2.2,4.0,23,0.00,,---,0.00,VWS V14.01,2013-04-25 13:17:00,
2013-04-25 07:18:00,42.3,7.1,29.85,SW,231,2.7,4.0,23,0.00,,---,0.00,VWS V14.01,2013-04-25 13:18:00,
2013-04-25 07:21:00,42.6,7.4,29.85,WSW,252,2.7,4.0,23,0.00,,---,0.00,VWS V14.01,2013-04-25 13:21:00,
2013-04-25 07:22:00,42.6,7.4,29.85,WSW,252,4.0,4.0,23,0.00,,---,0.00,VWS V14.01,2013-04-25 13:22:00,
2013-04-25 07:23:00,42.8,7.6,29.85,SSW,212,3.6,4.0,23,0.00,,---,0.00,VWS V14.01,2013-04-25 13:23:00,
2013-04-25 07:27:00,43.3,9.9,29.85,SSW,206,4.0,5.8,25,0.00,,---,0.00,VWS V14.01,2013-04-25 13:27:00,
2013-04-25 07:28:00,43.5,8.2,29.85,SSW,213,6.7,8.1,23,0.00,,---,0.00,VWS V14.01,2013-04-25 13:28:00,
2013-04-25 07:32:00,44.1,10.5,29.85,SSW,208,9.6,9.6,25,0.00,,---,0.00,VWS V14.01,2013-04-25 13:32:00,
2013-04-25 07:33:00,44.2,8.8,29.85,SSW,194,4.0,9.6,23,0.00,,---,0.00,VWS V14.01,2013-04-25 13:33:00,
2013-04-25 07:34:00,44.2,8.8,29.85,SSW,195,12.8,12.8,23,0.00,,---,0.00,VWS V14.01,2013-04-25 13:34:00,
2013-04-25 07:37:00,44.2,8.8,29.85,SSW,206,5.4,12.8,23,0.00,,---,0.00,VWS V14.01,2013-04-25 13:37:00,
2013-04-25 07:38:00,44.4,8.9,29.85,SSW,204,5.8,12.8,23,0.00,,---,0.00,VWS V14.01,2013-04-25 13:38:00,
2013-04-25 07:39:00,44.4,8.9,29.85,SSE,165,8.1,12.8,23,0.00,,---,0.00,VWS V14.01,2013-04-25 13:39:00,
2013-04-25 07:42:00,44.6,8.1,29.85,West,268,3.6,12.8,22,0.00,,---,0.00,VWS V14.01,2013-04-25 13:42:00,
2013-04-25 07:43:00,44.6,8.1,29.85,SSW,192,3.1,12.8,22,0.00,,---,0.00,VWS V14.01,2013-04-25 13:43:00,
2013-04-25 07:44:00,44.6,8.1,29.85,SW,221,3.6,12.8,22,0.00,,---,0.00,VWS V14.01,2013-04-25 13:44:00,
2013-04-25 07:45:00,44.6,8.1,29.85,WSW,245,3.6,12.8,22,0.00,,---,0.00,VWS V14.01,2013-04-25 13:45:00,
2013-04-25 07:47:00,44.8,8.3,29.85,SSW,200,3.1,5.4,22,0.00,,---,0.00,VWS V14.01,2013-04-25 13:47:00,
2013-04-25 07:48:00,44.8,8.3,29.85,South,182,3.1,5.4,22,0.00,,---,0.00,VWS V14.01,2013-04-25 13:48:00,
2013-04-25 07:49:00,44.8,8.3,29.85,WSW,243,2.7,5.4,22,0.00,,---,0.00,VWS V14.01,2013-04-25 13:49:00,
2013-04-25 07:50:00,44.8,8.3,29.85,SSW,204,4.0,5.4,22,0.00,,---,0.00,VWS V14.01,2013-04-25 13:50:00,
2013-04-25 07:53:00,44.8,8.3,29.85,SSW,200,5.4,7.2,22,0.00,,---,0.00,VWS V14.01,2013-04-25 13:53:00,
2013-04-25 07:54:00,44.8,8.3,29.85,South,187,4.9,7.2,22,0.00,,---,0.00,VWS V14.01,2013-04-25 13:54:00,
2013-04-25 07:55:00,44.8,8.3,29.85,SSW,199,3.6,7.2,22,0.00,,---,0.00,VWS V14.01,2013-04-25 13:55:00,
2013-04-25 07:58:00,44.8,8.3,29.85,SSW,202,6.3,8.3,22,0.00,,---,0.00,VWS V14.01,2013-04-25 13:58:00,
2013-04-25 07:59:00,44.8,8.3,29.85,SSW,209,4.9,8.3,22,0.00,,---,0.00,VWS V14.01,2013-04-25 13:59:00,
2013-04-25 08:01:00,44.8,8.3,29.85,WSW,253,2.7,4.0,22,0.00,,---,0.00,VWS V14.01,2013-04-25 14:01:00,
2013-04-25 08:03:00,44.6,8.1,29.85,SSE,160,3.1,6.3,22,0.00,,---,0.00,VWS V14.01,2013-04-25 14:03:00,
2013-04-25 08:04:00,44.6,8.1,29.85,SSW,200,5.4,6.3,22,0.00,,---,0.00,VWS V14.01,2013-04-25 14:04:00,
2013-04-25 08:06:00,44.6,8.1,29.85,SSW,211,4.0,6.3,22,0.00,,---,0.00,VWS V14.01,2013-04-25 14:06:00,
2013-04-25 08:08:00,44.6,8.1,29.85,WSW,247,3.1,6.3,22,0.00,,---,0.00,VWS V14.01,2013-04-25 14:08:00,
2013-04-25 08:09:00,44.6,8.1,29.85,SW,223,3.1,6.3,22,0.00,,---,0.00,VWS V14.01,2013-04-25 14:09:00,
2013-04-25 08:11:00,44.8,11.1,29.85,WSW,245,3.6,6.3,25,0.00,,---,0.00,VWS V14.01,2013-04-25 14:11:00,
2013-04-25 08:13:00,44.8,8.3,29.85,WSW,252,3.6,7.6,22,0.00,,---,0.00,VWS V14.01,2013-04-25 14:13:00,
2013-04-25 08:14:00,44.8,11.1,29.85,SSW,213,4.9,7.6,25,0.00,,---,0.00,VWS V14.01,2013-04-25 14:14:00,
2013-04-25 08:15:00,44.8,8.3,29.85,SSW,200,4.0,7.6,22,0.00,,---,0.00,VWS V14.01,2013-04-25 14:15:00,
2013-04-25 08:16:00,44.8,8.3,29.85,SSW,200,5.8,8.1,22,0.00,,---,0.00,VWS V14.01,2013-04-25 14:16:00,
2013-04-25 08:18:00,44.8,8.3,29.85,SW,215,4.0,8.1,22,0.00,,---,0.00,VWS V14.01,2013-04-25 14:18:00,
2013-04-25 08:19:00,44.8,8.3,29.85,SSW,209,3.1,8.1,22,0.00,,---,0.00,VWS V14.01,2013-04-25 14:19:00,
2013-04-25 08:20:00,44.8,8.3,29.85,West,264,4.9,8.1,22,0.00,,---,0.00,VWS V14.01,2013-04-25 14:20:00,
2013-04-25 08:21:00,44.8,8.3,29.85,South,181,4.0,8.7,22,0.00,,---,0.00,VWS V14.01,2013-04-25 14:21:00,
2013-04-25 08:23:00,44.8,8.3,29.85,SW,235,4.0,8.7,22,0.00,,---,0.00,VWS V14.01,2013-04-25 14:23:00,
2013-04-25 08:24:00,44.8,8.3,29.85,SSW,209,5.8,8.7,22,0.00,,---,0.00,VWS V14.01,2013-04-25 14:24:00,
2013-04-25 08:25:00,44.8,8.3,29.85,WNW,284,2.7,8.7,22,0.00,,---,0.00,VWS V14.01,2013-04-25 14:25:00,
2013-04-25 08:27:00,44.8,8.3,29.85,WSW,256,2.2,8.7,22,0.00,,---,0.00,VWS V14.01,2013-04-25 14:27:00,
2013-04-25 08:29:00,44.8,8.3,29.85,WNW,290,4.9,8.7,22,0.00,,---,0.00,VWS V14.01,2013-04-25 14:29:00,
2013-04-25 08:31:00,45.0,8.4,29.85,WNW,298,2.7,2.7,22,0.00,,---,0.00,VWS V14.01,2013-04-25 14:31:00,
2013-04-25 08:32:00,45.1,8.6,29.85,NNW,327,0.0,4.9,22,0.00,,---,0.00,VWS V14.01,2013-04-25 14:32:00,
2013-04-25 08:34:00,45.1,8.6,29.85,West,272,0.0,4.9,22,0.00,,---,0.00,VWS V14.01,2013-04-25 14:34:00,
2013-04-25 08:35:00,45.3,8.7,29.85,West,265,2.7,4.9,22,0.00,,---,0.00,VWS V14.01,2013-04-25 14:35:00,
2013-04-25 08:36:00,45.3,8.7,29.85,SSW,192,3.6,4.9,22,0.00,,---,0.00,VWS V14.01,2013-04-25 14:36:00,
2013-04-25 08:37:00,45.5,6.8,29.85,WNW,293,0.0,4.9,20,0.00,,---,0.00,VWS V14.01,2013-04-25 14:37:00,
2013-04-25 08:39:00,45.7,9.0,29.85,SW,235,0.0,4.9,22,0.00,,---,0.00,VWS V14.01,2013-04-25 14:39:00,
2013-04-25 08:40:00,45.9,12.0,29.85,WSW,237,2.7,4.9,25,0.00,,---,0.00,VWS V14.01,2013-04-25 14:40:00,
2013-04-25 08:41:00,46.2,12.4,29.85,WSW,242,2.2,4.9,25,0.00,,---,0.00,VWS V14.01,2013-04-25 14:41:00,
2013-04-25 08:42:00,46.6,11.7,29.85,SW,236,2.2,4.9,24,0.00,,---,0.00,VWS V14.01,2013-04-25 14:42:00,
2013-04-25 08:44:00,47.3,10.4,29.85,SSW,199,4.0,4.9,22,0.00,,---,0.00,VWS V14.01,2013-04-25 14:44:00,
2013-04-25 08:45:00,47.3,10.4,29.85,South,190,4.9,4.9,22,0.00,,---,0.00,VWS V14.01,2013-04-25 14:45:00,
2013-04-25 08:46:00,47.8,10.9,29.85,SSW,194,4.5,5.8,22,0.00,,---,0.00,VWS V14.01,2013-04-25 14:46:00,
2013-04-25 08:47:00,48.0,11.0,29.85,SW,218,2.2,5.8,22,0.00,,---,0.00,VWS V14.01,2013-04-25 14:47:00,
2013-04-25 08:50:00,48.7,8.3,29.85,South,171,2.7,5.8,19,0.00,,---,0.00,VWS V14.01,2013-04-25 14:50:00,
2013-04-25 08:51:00,48.9,10.7,29.85,WSW,246,3.6,5.8,21,0.00,,---,0.00,VWS V14.01,2013-04-25 14:51:00,
2013-04-25 08:52:00,49.1,10.9,29.85,WSW,254,2.7,5.8,21,0.00,,---,0.00,VWS V14.01,2013-04-25 14:52:00,
2013-04-25 08:55:00,49.6,9.1,29.85,South,182,3.6,5.8,19,0.00,,---,0.00,VWS V14.01,2013-04-25 14:55:00,
2013-04-25 08:57:00,50.2,9.5,29.85,SW,220,3.1,5.8,19,0.00,,---,0.00,VWS V14.01,2013-04-25 14:57:00,
2013-04-25 09:00:00,50.5,9.8,29.85,SSW,192,2.7,2.7,19,0.00,,---,0.00,VWS V14.01,2013-04-25 15:00:00,
2013-04-25 09:02:00,50.0,9.4,29.85,SW,229,6.3,9.6,19,0.00,,---,0.00,VWS V14.01,2013-04-25 15:02:00,
2013-04-25 09:03:00,50.0,9.4,29.85,SSW,211,5.8,9.6,19,0.00,,---,0.00,VWS V14.01,2013-04-25 15:03:00,
2013-04-25 09:05:00,48.7,8.3,29.85,WSW,254,5.4,9.6,19,0.00,,---,0.00,VWS V14.01,2013-04-25 15:05:00,
2013-04-25 09:06:00,48.7,8.3,29.85,West,268,2.7,9.6,19,0.00,,---,0.00,VWS V14.01,2013-04-25 15:06:00,
2013-04-25 09:07:00,48.4,8.0,29.85,SSW,194,5.4,9.6,19,0.00,,---,0.00,VWS V14.01,2013-04-25 15:07:00,
2013-04-25 09:08:00,48.4,8.0,29.85,SW,235,4.0,9.6,19,0.00,,---,0.00,VWS V14.01,2013-04-25 15:08:00,
2013-04-25 09:10:00,48.4,8.0,29.85,SSW,202,7.6,9.6,19,0.00,,---,0.00,VWS V14.01,2013-04-25 15:10:00,
2013-04-25 09:11:00,48.4,8.0,29.85,SW,233,5.4,9.6,19,0.00,,---,0.00,VWS V14.01,2013-04-25 15:11:00,
2013-04-25 09:12:00,48.6,8.2,29.85,SSW,199,5.4,9.6,19,0.00,,---,0.00,VWS V14.01,2013-04-25 15:12:00,
2013-04-25 09:13:00,48.6,8.2,29.85,SSW,199,5.4,9.6,19,0.00,,---,0.00,VWS V14.01,2013-04-25 15:13:00,
2013-04-25 09:16:00,48.9,8.5,29.85,SW,224,4.9,4.9,19,0.00,,---,0.00,VWS V14.01,2013-04-25 15:16:00,
2013-04-25 09:17:00,49.1,8.6,29.85,SSW,201,2.7,5.8,19,0.00,,---,0.00,VWS V14.01,2013-04-25 15:17:00,
2013-04-25 09:18:00,49.3,8.8,29.85,South,176,3.6,5.8,19,0.00,,---,0.00,VWS V14.01,2013-04-25 15:18:00,
2013-04-25 09:21:00,49.8,9.2,29.85,NW,312,3.6,5.8,19,0.00,,---,0.00,VWS V14.01,2013-04-25 15:21:00,
2013-04-25 09:22:00,50.0,9.4,29.85,WNW,288,3.1,5.8,19,0.00,,---,0.00,VWS V14.01,2013-04-25 15:22:00,
2013-04-25 09:23:00,50.2,9.5,29.85,West,272,5.8,7.6,19,0.00,,---,0.00,VWS V14.01,2013-04-25 15:23:00,
2013-04-25 09:24:00,50.2,9.5,29.85,West,270,3.6,7.6,19,0.00,,---,0.00,VWS V14.01,2013-04-25 15:24:00,
2013-04-25 09:26:00,50.5,9.8,29.85,WNW,302,8.1,8.1,19,0.00,,---,0.00,VWS V14.01,2013-04-25 15:26:00,
2013-04-25 09:27:00,50.7,6.2,29.85,SSW,204,4.0,8.1,16,0.00,,---,0.00,VWS V14.01,2013-04-25 15:27:00,
2013-04-25 09:28:00,50.7,6.2,29.85,SSW,204,8.7,8.7,16,0.00,,---,0.00,VWS V14.01,2013-04-25 15:28:00,
2013-04-25 09:29:00,50.5,6.0,29.85,South,180,6.7,11.0,16,0.00,,---,0.00,VWS V14.01,2013-04-25 15:29:00,
2013-04-25 09:31:00,50.4,5.9,29.85,West,268,2.2,8.1,16,0.00,,---,0.00,VWS V14.01,2013-04-25 15:31:00,
2013-04-25 09:32:00,50.5,9.8,29.85,West,266,5.4,8.1,19,0.00,,---,0.00,VWS V14.01,2013-04-25 15:32:00,
2013-04-25 09:33:00,50.5,6.0,29.85,WSW,256,0.0,8.1,16,0.00,,---,0.00,VWS V14.01,2013-04-25 15:33:00,
2013-04-25 09:34:00,50.7,6.2,29.85,South,190,3.6,8.1,16,0.00,,---,0.00,VWS V14.01,2013-04-25 15:34:00,
2013-04-25 09:36:00,51.1,10.3,29.85,SW,220,4.0,8.1,19,0.00,,---,0.00,VWS V14.01,2013-04-25 15:36:00,
2013-04-25 09:37:00,51.3,6.6,29.85,WNW,288,2.7,8.1,16,0.00,,---,0.00,VWS V14.01,2013-04-25 15:37:00,
2013-04-25 09:38:00,51.3,10.4,29.85,South,189,5.4,8.1,19,0.00,,---,0.00,VWS V14.01,2013-04-25 15:38:00,
2013-04-25 09:40:00,51.6,10.7,29.85,SW,235,2.7,8.1,19,0.00,,---,0.00,VWS V14.01,2013-04-25 15:40:00,
2013-04-25 09:41:00,51.6,10.7,29.85,West,264,5.8,8.1,19,0.00,,---,0.00,VWS V14.01,2013-04-25 15:41:00,
2013-04-25 09:42:00,51.6,10.7,29.85,SW,227,4.0,8.1,19,0.00,,---,0.00,VWS V14.01,2013-04-25 15:42:00,
2013-04-25 09:43:00,51.6,10.7,29.85,WSW,258,3.1,8.1,19,0.00,,---,0.00,VWS V14.01,2013-04-25 15:43:00,
2013-04-25 09:45:00,51.3,6.6,29.85,SSW,202,4.5,8.1,16,0.00,,---,0.00,VWS V14.01,2013-04-25 15:45:00,
2013-04-25 09:47:00,50.7,10.0,29.85,West,261,2.2,5.8,19,0.00,,---,0.00,VWS V14.01,2013-04-25 15:47:00,
2013-04-25 09:48:00,50.5,6.0,29.85,SW,221,3.6,5.8,16,0.00,,---,0.00,VWS V14.01,2013-04-25 15:48:00,
2013-04-25 09:50:00,50.4,5.9,29.85,SSW,198,5.4,7.6,16,0.00,,---,0.00,VWS V14.01,2013-04-25 15:50:00,
2013-04-25 09:52:00,50.5,9.8,29.85,SW,235,5.4,7.6,19,0.00,,---,0.00,VWS V14.01,2013-04-25 15:52:00,
2013-04-25 09:53:00,50.9,6.3,29.85,SW,222,3.6,7.6,16,0.00,,---,0.00,VWS V14.01,2013-04-25 15:53:00,
2013-04-25 09:55:00,51.3,10.4,29.85,West,272,3.1,7.6,19,0.00,,---,0.00,VWS V14.01,2013-04-25 15:55:00,
2013-04-25 09:57:00,51.8,7.1,29.85,SW,235,3.6,7.6,16,0.00,,---,0.00,VWS V14.01,2013-04-25 15:57:00,
2013-04-25 09:58:00,52.3,7.5,29.85,WNW,286,5.4,8.3,16,0.00,,---,0.00,VWS V14.01,2013-04-25 15:58:00,
2013-04-25 09:59:00,52.3,7.5,29.85,West,274,5.4,8.3,16,0.00,,---,0.00,VWS V14.01,2013-04-25 15:59:00,
2013-04-25 10:00:00,52.5,7.6,29.85,West,279,2.7,5.4,16,0.00,,---,0.00,VWS V14.01,2013-04-25 16:00:00,
2013-04-25 10:02:00,52.7,7.8,29.85,West,273,3.1,6.3,16,0.00,,---,0.00,VWS V14.01,2013-04-25 16:02:00,
2013-04-25 10:03:00,52.7,7.8,29.85,West,274,3.6,6.3,16,0.00,,---,0.00,VWS V14.01,2013-04-25 16:03:00,
2013-04-25 10:04:00,52.7,7.8,29.85,West,276,2.2,6.3,16,0.00,,---,0.00,VWS V14.01,2013-04-25 16:04:00,
2013-04-25 10:05:00,53.1,8.1,29.85,West,260,5.8,8.3,16,0.00,,---,0.00,VWS V14.01,2013-04-25 16:05:00,
2013-04-25 10:07:00,53.1,8.1,29.85,WSW,254,5.8,8.3,16,0.00,,---,0.00,VWS V14.01,2013-04-25 16:07:00,
2013-04-25 10:08:00,53.1,8.1,29.85,West,268,3.6,8.3,16,0.00,,---,0.00,VWS V14.01,2013-04-25 16:08:00,
2013-04-25 10:09:00,53.2,8.2,29.85,WSW,246,2.2,8.3,16,0.00,,---,0.00,VWS V14.01,2013-04-25 16:09:00,
2013-04-25 10:10:00,53.6,7.1,29.85,WNW,293,4.0,8.3,15,0.00,,---,0.00,VWS V14.01,2013-04-25 16:10:00,
2013-04-25 10:12:00,54.0,7.4,29.85,West,279,3.1,8.3,15,0.00,,---,0.00,VWS V14.01,2013-04-25 16:12:00,
2013-04-25 10:13:00,54.1,7.5,29.85,West,277,6.7,8.3,15,0.00,,---,0.00,VWS V14.01,2013-04-25 16:13:00,
2013-04-25 10:14:00,54.3,7.7,29.85,West,268,3.1,8.3,15,0.00,,---,0.00,VWS V14.01,2013-04-25 16:14:00,
2013-04-25 10:15:00,54.5,7.8,29.85,North,0,4.9,4.9,15,0.00,,---,0.00,VWS V14.01,2013-04-25 16:15:00,
2013-04-25 10:17:00,54.5,7.8,29.85,NW,318,4.0,8.1,15,0.00,,---,0.00,VWS V14.01,2013-04-25 16:17:00,
2013-04-25 10:18:00,54.5,7.8,29.85,WNW,284,3.1,8.1,15,0.00,,---,0.00,VWS V14.01,2013-04-25 16:18:00,
2013-04-25 10:19:00,54.5,11.9,29.85,WNW,287,4.0,8.1,18,0.00,,---,0.00,VWS V14.01,2013-04-25 16:19:00,
2013-04-25 10:20:00,54.7,8.0,29.85,WSW,258,4.0,8.1,15,0.00,,---,0.00,VWS V14.01,2013-04-25 16:20:00,
2013-04-25 10:22:00,54.9,8.1,29.85,NNW,328,3.6,8.1,15,0.00,,---,0.00,VWS V14.01,2013-04-25 16:22:00,
2013-04-25 10:23:00,54.7,8.0,29.85,WNW,293,4.9,8.1,15,0.00,,---,0.00,VWS V14.01,2013-04-25 16:23:00,
2013-04-25 10:24:00,54.9,12.2,29.85,NW,319,3.1,8.1,18,0.00,,---,0.00,VWS V14.01,2013-04-25 16:24:00,
2013-04-25 10:25:00,55.0,8.2,29.85,WNW,300,4.9,8.1,15,0.00,,---,0.00,VWS V14.01,2013-04-25 16:25:00,
2013-04-25 10:27:00,54.5,7.8,29.85,West,279,3.6,8.1,15,0.00,,---,0.00,VWS V14.01,2013-04-25 16:27:00,
2013-04-25 10:28:00,54.3,7.7,29.85,West,280,5.8,8.1,15,0.00,,---,0.00,VWS V14.01,2013-04-25 16:28:00,
2013-04-25 10:29:00,54.1,7.5,29.85,North,9,3.1,8.1,15,0.00,,---,0.00,VWS V14.01,2013-04-25 16:29:00,
2013-04-25 10:30:00,54.1,7.5,29.85,NNW,330,2.7,4.0,15,0.00,,---,0.00,VWS V14.01,2013-04-25 16:30:00,
2013-04-25 10:31:00,54.1,7.5,29.85,North,357,3.1,4.0,15,0.00,,---,0.00,VWS V14.01,2013-04-25 16:31:00,
2013-04-25 10:32:00,53.6,7.1,29.85,NW,318,4.5,4.9,15,0.00,,---,0.00,VWS V14.01,2013-04-25 16:32:00,
2013-04-25 10:34:00,53.2,8.2,29.85,NNW,329,5.4,5.4,16,0.00,,---,0.00,VWS V14.01,2013-04-25 16:34:00,
2013-04-25 10:35:00,53.1,8.1,29.85,NNW,338,3.1,5.4,16,0.00,,---,0.00,VWS V14.01,2013-04-25 16:35:00,
2013-04-25 10:36:00,53.1,8.1,29.85,WSW,257,2.2,5.4,16,0.00,,---,0.00,VWS V14.01,2013-04-25 16:36:00,
2013-04-25 10:37:00,53.1,8.1,29.85,North,353,4.9,5.4,16,0.00,,---,0.00,VWS V14.01,2013-04-25 16:37:00,
2013-04-25 10:39:00,53.2,10.9,29.85,NW,305,3.1,5.4,18,0.00,,---,0.00,VWS V14.01,2013-04-25 16:39:00,
2013-04-25 10:40:00,53.4,8.4,29.85,WNW,284,4.0,5.4,16,0.00,,---,0.00,VWS V14.01,2013-04-25 16:40:00,
2013-04-25 10:41:00,53.6,7.1,29.85,West,279,3.1,5.8,15,0.00,,---,0.00,VWS V14.01,2013-04-25 16:41:00,
2013-04-25 10:43:00,53.8,7.2,29.85,South,171,2.7,8.3,15,0.00,,---,0.00,VWS V14.01,2013-04-25 16:43:00,
2013-04-25 10:44:00,53.8,7.2,29.85,West,276,3.1,8.3,15,0.00,,---,0.00,VWS V14.01,2013-04-25 16:44:00,
2013-04-25 10:45:00,54.1,7.5,29.85,NNW,332,2.7,2.7,15,0.00,,---,0.00,VWS V14.01,2013-04-25 16:45:00,
2013-04-25 10:46:00,54.3,7.7,29.82,West,274,6.3,6.3,15,0.00,,---,0.00,VWS V14.01,2013-04-25 16:46:00,
2013-04-25 10:48:00,54.0,7.4,29.82,NW,321,5.8,6.3,15,0.00,,---,0.00,VWS V14.01,2013-04-25 16:48:00,
2013-04-25 10:49:00,53.8,7.2,29.82,West,266,6.3,6.3,15,0.00,,---,0.00,VWS V14.01,2013-04-25 16:49:00,
2013-04-25 10:50:00,53.4,8.4,29.82,WNW,291,5.8,6.3,16,0.00,,---,0.00,VWS V14.01,2013-04-25 16:50:00,
2013-04-25 10:51:00,53.2,8.2,29.82,NW,325,4.0,6.3,16,0.00,,---,0.00,VWS V14.01,2013-04-25 16:51:00,
2013-04-25 10:53:00,53.1,8.1,29.82,WNW,300,4.9,8.7,16,0.00,,---,0.00,VWS V14.01,2013-04-25 16:53:00,
2013-04-25 10:54:00,52.9,7.9,29.82,NW,308,5.4,8.7,16,0.00,,---,0.00,VWS V14.01,2013-04-25 16:54:00,
2013-04-25 10:55:00,52.7,7.8,29.82,NW,306,5.4,8.7,16,0.00,,---,0.00,VWS V14.01,2013-04-25 16:55:00,
2013-04-25 10:56:00,52.7,7.8,29.82,NW,315,4.9,8.7,16,0.00,,---,0.00,VWS V14.01,2013-04-25 16:56:00,
2013-04-25 10:57:00,52.7,7.8,29.82,WSW,257,4.9,8.7,16,0.00,,---,0.00,VWS V14.01,2013-04-25 16:57:00,
2013-04-25 10:59:00,52.5,7.6,29.82,West,264,3.1,8.7,16,0.00,,---,0.00,VWS V14.01,2013-04-25 16:59:00,
2013-04-25 11:00:00,52.5,7.6,29.85,WNW,300,4.0,4.0,16,0.00,,---,0.00,VWS V14.01,2013-04-25 17:00:00,
2013-04-25 11:01:00,52.5,7.6,29.85,NW,309,6.3,6.3,16,0.00,,---,0.00,VWS V14.01,2013-04-25 17:01:00,
2013-04-25 11:02:00,52.9,7.9,29.85,West,264,2.2,6.3,16,0.00,,---,0.00,VWS V14.01,2013-04-25 17:02:00,
2013-04-25 11:04:00,53.2,8.2,29.85,NW,313,6.7,6.7,16,0.00,,---,0.00,VWS V14.01,2013-04-25 17:04:00,
2013-04-25 11:05:00,53.2,8.2,29.85,WNW,292,5.8,7.6,16,0.00,,---,0.00,VWS V14.01,2013-04-25 17:05:00,
2013-04-25 11:06:00,53.6,7.1,29.85,North,0,3.6,7.6,15,0.00,,---,0.00,VWS V14.01,2013-04-25 17:06:00,
2013-04-25 11:07:00,53.6,7.1,29.85,WNW,292,5.8,7.6,15,0.00,,---,0.00,VWS V14.01,2013-04-25 17:07:00,
2013-04-25 11:09:00,53.8,7.2,29.85,WNW,295,2.7,7.6,15,0.00,,---,0.00,VWS V14.01,2013-04-25 17:09:00,
2013-04-25 11:10:00,54.0,7.4,29.85,NNE,14,4.0,7.6,15,0.00,,---,0.00,VWS V14.01,2013-04-25 17:10:00,
2013-04-25 11:11:00,54.1,7.5,29.85,NW,313,3.1,7.6,15,0.00,,---,0.00,VWS V14.01,2013-04-25 17:11:00,
2013-04-25 11:12:00,54.1,7.5,29.85,WNW,301,4.0,7.6,15,0.00,,---,0.00,VWS V14.01,2013-04-25 17:12:00,
2013-04-25 11:14:00,53.8,7.2,29.85,WNW,301,3.6,7.6,15,0.00,,---,0.00,VWS V14.01,2013-04-25 17:14:00,
2013-04-25 11:15:00,53.8,7.2,29.85,NW,313,4.5,7.6,15,0.00,,---,0.00,VWS V14.01,2013-04-25 17:15:00,
2013-04-25 11:16:00,53.4,8.4,29.82,WNW,303,3.6,5.8,16,0.00,,---,0.00,VWS V14.01,2013-04-25 17:16:00,
2013-04-25 11:18:00,53.1,8.1,29.82,SSW,195,7.2,7.2,16,0.00,,---,0.00,VWS V14.01,2013-04-25 17:18:00,
2013-04-25 11:19:00,53.1,8.1,29.82,SSW,209,5.8,8.1,16,0.00,,---,0.00,VWS V14.01,2013-04-25 17:19:00,
2013-04-25 11:20:00,53.1,8.1,29.82,SSW,209,5.8,8.1,16,0.00,,---,0.00,VWS V14.01,2013-04-25 17:20:00,
2013-04-25 11:21:00,53.1,8.1,29.82,SSW,200,5.8,11.0,16,0.00,,---,0.00,VWS V14.01,2013-04-25 17:21:00,
2013-04-25 11:23:00,53.2,8.2,29.82,SW,219,2.7,11.0,16,0.00,,---,0.00,VWS V14.01,2013-04-25 17:23:00,
2013-04-25 11:24:00,53.2,8.2,29.82,WNW,292,4.0,11.0,16,0.00,,---,0.00,VWS V14.01,2013-04-25 17:24:00,
2013-04-25 11:25:00,53.2,8.2,29.82,WNW,298,5.8,11.0,16,0.00,,---,0.00,VWS V14.01,2013-04-25 17:25:00,
2013-04-25 11:26:00,53.2,8.2,29.82,West,275,3.1,11.0,16,0.00,,---,0.00,VWS V14.01,2013-04-25 17:26:00,
2013-04-25 11:27:00,53.2,8.2,29.82,West,279,5.4,11.0,16,0.00,,---,0.00,VWS V14.01,2013-04-25 17:27:00,
2013-04-25 11:28:00,53.1,8.1,29.82,West,272,3.1,11.0,16,0.00,,---,0.00,VWS V14.01,2013-04-25 17:28:00,
2013-04-25 11:29:00,52.9,7.9,29.82,West,274,5.8,11.0,16,0.00,,---,0.00,VWS V14.01,2013-04-25 17:29:00,
2013-04-25 11:30:00,52.9,7.9,29.82,West,274,5.8,11.0,16,0.00,,---,0.00,VWS V14.01,2013-04-25 17:30:00,
2013-04-25 11:32:00,53.1,8.1,29.82,WSW,254,2.7,6.3,16,0.00,,---,0.00,VWS V14.01,2013-04-25 17:32:00,
2013-04-25 11:33:00,53.1,8.1,29.82,WNW,303,3.6,6.3,16,0.00,,---,0.00,VWS V14.01,2013-04-25 17:33:00,
2013-04-25 11:35:00,53.1,8.1,29.82,WNW,288,4.9,6.3,16,0.00,,---,0.00,VWS V14.01,2013-04-25 17:35:00,
2013-04-25 11:37:00,53.1,8.1,29.82,WNW,289,5.8,6.3,16,0.00,,---,0.00,VWS V14.01,2013-04-25 17:37:00,
2013-04-25 11:38:00,52.9,7.9,29.82,West,266,4.0,6.3,16,0.00,,---,0.00,VWS V14.01,2013-04-25 17:38:00,
2013-04-25 11:39:00,53.1,8.1,29.82,WSW,244,3.6,6.3,16,0.00,,---,0.00,VWS V14.01,2013-04-25 17:39:00,
2013-04-25 11:40:00,53.1,8.1,29.82,West,263,3.1,6.3,16,0.00,,---,0.00,VWS V14.01,2013-04-25 17:40:00,
2013-04-25 11:42:00,53.6,11.1,29.82,WSW,256,3.6,6.3,18,0.00,,---,0.00,VWS V14.01,2013-04-25 17:42:00,
2013-04-25 11:44:00,54.0,7.4,29.82,West,274,3.1,6.3,15,0.00,,---,0.00,VWS V14.01,2013-04-25 17:44:00,
2013-04-25 11:45:00,54.3,7.7,29.82,NW,317,3.6,3.6,15,0.00,,---,0.00,VWS V14.01,2013-04-25 17:45:00,
2013-04-25 11:46:00,54.5,7.8,29.82,West,272,8.1,8.1,15,0.00,,---,0.00,VWS V14.01,2013-04-25 17:46:00,
2013-04-25 11:47:00,54.7,8.0,29.82,NNW,335,5.8,10.5,15,0.00,,---,0.00,VWS V14.01,2013-04-25 17:47:00,
2013-04-25 11:49:00,54.7,8.0,29.82,North,349,4.9,10.5,15,0.00,,---,0.00,VWS V14.01,2013-04-25 17:49:00,
2013-04-25 11:50:00,54.5,7.8,29.82,WNW,282,3.1,10.5,15,0.00,,---,0.00,VWS V14.01,2013-04-25 17:50:00,
2013-04-25 11:52:00,54.3,7.7,29.82,NNW,343,3.1,10.5,15,0.00,,---,0.00,VWS V14.01,2013-04-25 17:52:00,
2013-04-25 11:54:00,54.1,7.5,29.82,NNW,327,3.6,10.5,15,0.00,,---,0.00,VWS V14.01,2013-04-25 17:54:00,
2013-04-25 11:56:00,54.1,7.5,29.82,WNW,293,3.1,10.5,15,0.00,,---,0.00,VWS V14.01,2013-04-25 17:56:00,
2013-04-25 11:57:00,54.1,7.5,29.82,WSW,244,3.1,10.5,15,0.00,,---,0.00,VWS V14.01,2013-04-25 17:57:00,
2013-04-25 11:58:00,54.0,7.4,29.82,SE,140,3.1,10.5,15,0.00,,---,0.00,VWS V14.01,2013-04-25 17:58:00,
2013-04-25 11:59:00,54.1,7.5,29.82,NNW,343,5.8,10.5,15,0.00,,---,0.00,VWS V14.01,2013-04-25 17:59:00,
2013-04-25 12:01:00,54.1,7.5,29.82,NW,311,2.2,3.1,15,0.00,,---,0.00,VWS V14.01,2013-04-25 18:01:00,
2013-04-25 12:02:00,54.3,7.7,29.82,West,264,4.9,6.3,15,0.00,,---,0.00,VWS V14.01,2013-04-25 18:02:00,
2013-04-25 12:04:00,54.7,8.0,29.82,WNW,301,4.9,6.3,15,0.00,,---,0.00,VWS V14.01,2013-04-25 18:04:00,
2013-04-25 12:05:00,54.7,8.0,29.82,NNW,338,3.6,6.3,15,0.00,,---,0.00,VWS V14.01,2013-04-25 18:05:00,
2013-04-25 12:06:00,55.0,8.2,29.82,NW,326,2.7,6.3,15,0.00,,---,0.00,VWS V14.01,2013-04-25 18:06:00,
2013-04-25 12:07:00,55.0,8.2,29.82,NW,304,2.7,6.3,15,0.00,,---,0.00,VWS V14.01,2013-04-25 18:07:00,
2013-04-25 12:09:00,54.9,8.1,29.82,NW,320,4.0,6.3,15,0.00,,---,0.00,VWS V14.01,2013-04-25 18:09:00,
2013-04-25 12:10:00,54.9,8.1,29.82,NNW,335,5.4,6.3,15,0.00,,---,0.00,VWS V14.01,2013-04-25 18:10:00,
2013-04-25 12:11:00,54.7,8.0,29.82,West,276,6.3,6.3,15,0.00,,---,0.00,VWS V14.01,2013-04-25 18:11:00,
2013-04-25 12:12:00,54.5,7.8,29.82,West,272,2.7,6.3,15,0.00,,---,0.00,VWS V14.01,2013-04-25 18:12:00,
2013-04-25 12:15:00,54.3,7.7,29.82,NW,320,5.8,5.8,15,0.00,,---,0.00,VWS V14.01,2013-04-25 18:15:00,
2013-04-25 12:16:00,54.3,7.7,29.79,WNW,285,4.0,7.6,15,0.00,,---,0.00,VWS V14.01,2013-04-25 18:16:00,
2013-04-25 12:17:00,54.5,7.8,29.79,WSW,256,3.6,7.6,15,0.00,,---,0.00,VWS V14.01,2013-04-25 18:17:00,
2013-04-25 12:20:00,54.7,8.0,29.79,NNW,338,4.0,7.6,15,0.00,,---,0.00,VWS V14.01,2013-04-25 18:20:00,
2013-04-25 12:21:00,55.0,8.2,29.79,West,274,5.8,7.6,15,0.00,,---,0.00,VWS V14.01,2013-04-25 18:21:00,
2013-04-25 12:22:00,55.2,8.4,29.79,NNW,328,5.8,7.6,15,0.00,,---,0.00,VWS V14.01,2013-04-25 18:22:00,
2013-04-25 12:23:00,55.4,8.5,29.79,NNW,346,5.4,7.6,15,0.00,,---,0.00,VWS V14.01,2013-04-25 18:23:00,
2013-04-25 12:25:00,55.6,8.7,29.79,North,353,3.1,8.1,15,0.00,,---,0.00,VWS V14.01,2013-04-25 18:25:00,
2013-04-25 12:26:00,55.4,8.5,29.79,North,0,4.5,8.1,15,0.00,,---,0.00,VWS V14.01,2013-04-25 18:26:00,
2013-04-25 12:27:00,55.4,8.5,29.79,West,277,4.0,8.1,15,0.00,,---,0.00,VWS V14.01,2013-04-25 18:27:00,
2013-04-25 12:28:00,55.2,8.4,29.79,WNW,289,3.6,8.1,15,0.00,,---,0.00,VWS V14.01,2013-04-25 18:28:00,
2013-04-25 12:30:00,55.0,8.2,29.82,NW,310,4.9,5.4,15,0.00,,---,0.00,VWS V14.01,2013-04-25 18:30:00,
2013-04-25 12:31:00,54.9,8.1,29.82,NW,307,3.6,5.4,15,0.00,,---,0.00,VWS V14.01,2013-04-25 18:31:00,
2013-04-25 12:32:00,55.0,8.2,29.82,West,271,2.7,5.4,15,0.00,,---,0.00,VWS V14.01,2013-04-25 18:32:00,
2013-04-25 12:33:00,55.0,8.2,29.82,WNW,301,4.0,7.6,15,0.00,,---,0.00,VWS V14.01,2013-04-25 18:33:00,
2013-04-25 12:36:00,55.2,8.4,29.82,North,353,4.9,8.1,15,0.00,,---,0.00,VWS V14.01,2013-04-25 18:36:00,
2013-04-25 12:37:00,55.4,8.5,29.82,NNW,338,2.7,8.1,15,0.00,,---,0.00,VWS V14.01,2013-04-25 18:37:00,
2013-04-25 12:38:00,55.4,8.5,29.82,NW,314,5.4,8.1,15,0.00,,---,0.00,VWS V14.01,2013-04-25 18:38:00,
2013-04-25 12:41:00,55.8,8.8,29.82,WNW,302,8.1,8.1,15,0.00,,---,0.00,VWS V14.01,2013-04-25 18:41:00,
2013-04-25 12:42:00,55.9,9.0,29.82,WNW,297,6.3,8.1,15,0.00,,---,0.00,VWS V14.01,2013-04-25 18:42:00,
2013-04-25 12:43:00,55.9,9.0,29.82,NW,306,5.8,8.1,15,0.00,,---,0.00,VWS V14.01,2013-04-25 18:43:00,
2013-04-25 12:46:00,56.3,9.3,29.79,NNW,329,6.3,6.3,15,0.00,,---,0.00,VWS V14.01,2013-04-25 18:46:00,
2013-04-25 12:47:00,56.3,9.3,29.79,NW,311,5.4,6.3,15,0.00,,---,0.00,VWS V14.01,2013-04-25 18:47:00,
2013-04-25 12:48:00,56.5,9.4,29.79,NNW,340,6.3,6.3,15,0.00,,---,0.00,VWS V14.01,2013-04-25 18:48:00,
2013-04-25 12:51:00,56.8,9.7,29.79,WNW,295,3.6,6.3,15,0.00,,---,0.00,VWS V14.01,2013-04-25 18:51:00,
2013-04-25 12:52:00,57.0,9.8,29.79,WNW,295,3.6,6.3,15,0.00,,---,0.00,VWS V14.01,2013-04-25 18:52:00,
2013-04-25 12:53:00,57.0,9.8,29.79,NW,305,3.6,6.3,15,0.00,,---,0.00,VWS V14.01,2013-04-25 18:53:00,
2013-04-25 12:54:00,57.2,8.4,29.79,North,0,4.0,6.3,14,0.00,,---,0.00,VWS V14.01,2013-04-25 18:54:00,
2013-04-25 12:56:00,57.4,8.6,29.79,West,276,3.1,6.3,14,0.00,,---,0.00,VWS V14.01,2013-04-25 18:56:00,
2013-04-25 12:57:00,57.4,8.6,29.79,NW,313,5.4,6.3,14,0.00,,---,0.00,VWS V14.01,2013-04-25 18:57:00,
2013-04-25 12:58:00,57.4,8.6,29.79,NW,307,5.4,6.3,14,0.00,,---,0.00,VWS V14.01,2013-04-25 18:58:00,
2013-04-25 12:59:00,56.8,9.7,29.79,NW,318,5.4,6.3,15,0.00,,---,0.00,VWS V14.01,2013-04-25 18:59:00,
2013-04-25 13:02:00,56.5,9.4,29.82,WNW,297,2.7,4.0,15,0.00,,---,0.00,VWS V14.01,2013-04-25 19:02:00,
2013-04-25 13:03:00,56.3,9.3,29.82,WNW,299,3.6,6.3,15,0.00,,---,0.00,VWS V14.01,2013-04-25 19:03:00,
2013-04-25 13:05:00,56.3,9.3,29.82,NW,318,4.0,6.3,15,0.00,,---,0.00,VWS V14.01,2013-04-25 19:05:00,
2013-04-25 13:07:00,56.8,9.7,29.82,West,263,4.0,6.3,15,0.00,,---,0.00,VWS V14.01,2013-04-25 19:07:00,
2013-04-25 13:08:00,57.0,9.8,29.82,WSW,243,2.7,6.3,15,0.00,,---,0.00,VWS V14.01,2013-04-25 19:08:00,
2013-04-25 13:10:00,57.4,8.6,29.82,SSW,211,5.8,6.3,14,0.00,,---,0.00,VWS V14.01,2013-04-25 19:10:00,
2013-04-25 13:12:00,57.6,8.7,29.82,WNW,284,2.7,6.3,14,0.00,,---,0.00,VWS V14.01,2013-04-25 19:12:00,
2013-04-25 13:13:00,57.6,8.7,29.82,West,281,2.7,6.3,14,0.00,,---,0.00,VWS V14.01,2013-04-25 19:13:00,
2013-04-25 13:15:00,57.7,8.9,29.82,West,278,5.4,5.8,14,0.00,,---,0.00,VWS V14.01,2013-04-25 19:15:00,
2013-04-25 13:18:00,57.7,8.9,29.79,NW,311,3.6,5.8,14,0.00,,---,0.00,VWS V14.01,2013-04-25 19:18:00,
2013-04-25 13:19:00,57.6,8.7,29.79,WSW,238,5.8,7.6,14,0.00,,---,0.00,VWS V14.01,2013-04-25 19:19:00,
2013-04-25 13:21:00,57.4,8.6,29.79,SW,230,4.0,7.6,14,0.00,,---,0.00,VWS V14.01,2013-04-25 19:21:00,
2013-04-25 13:23:00,57.4,8.6,29.79,West,279,3.6,7.6,14,0.00,,---,0.00,VWS V14.01,2013-04-25 19:23:00,
2013-04-25 13:24:00,57.4,8.6,29.79,SSW,197,5.4,7.6,14,0.00,,---,0.00,VWS V14.01,2013-04-25 19:24:00,
2013-04-25 13:26:00,57.4,8.6,29.79,WSW,253,5.4,8.1,14,0.00,,---,0.00,VWS V14.01,2013-04-25 19:26:00,
2013-04-25 13:28:00,57.6,8.7,29.79,WSW,247,5.8,8.1,14,0.00,,---,0.00,VWS V14.01,2013-04-25 19:28:00,
2013-04-25 13:29:00,57.7,8.9,29.79,WSW,257,3.1,8.1,14,0.00,,---,0.00,VWS V14.01,2013-04-25 19:29:00,
2013-04-25 13:31:00,58.1,9.2,29.79,WNW,293,4.0,5.4,14,0.00,,---,0.00,VWS V14.01,2013-04-25 19:31:00,
2013-04-25 13:33:00,58.5,9.5,29.79,WNW,289,3.6,5.4,14,0.00,,---,0.00,VWS V14.01,2013-04-25 19:33:00,
2013-04-25 13:34:00,58.5,9.5,29.79,West,279,3.1,5.4,14,0.00,,---,0.00,VWS V14.01,2013-04-25 19:34:00,
2013-04-25 13:36:00,59.0,9.9,29.79,WSW,240,4.9,6.7,14,0.00,,---,0.00,VWS V14.01,2013-04-25 19:36:00,
2013-04-25 13:38:00,59.4,10.2,29.79,WSW,256,4.0,6.7,14,0.00,,---,0.00,VWS V14.01,2013-04-25 19:38:00,
2013-04-25 13:39:00,59.2,10.0,29.79,SW,235,5.8,6.7,14,0.00,,---,0.00,VWS V14.01,2013-04-25 19:39:00,
2013-04-25 13:41:00,59.0,9.9,29.79,NNW,342,4.0,9.2,14,0.00,,---,0.00,VWS V14.01,2013-04-25 19:41:00,
2013-04-25 13:43:00,58.1,9.2,29.79,North,8,4.9,9.2,14,0.00,,---,0.00,VWS V14.01,2013-04-25 19:43:00,
2013-04-25 13:44:00,58.1,9.2,29.79,West,277,5.8,9.2,14,0.00,,---,0.00,VWS V14.01,2013-04-25 19:44:00,
2013-04-25 13:45:00,57.9,9.0,29.79,WNW,301,6.3,6.3,14,0.00,,---,0.00,VWS V14.01,2013-04-25 19:45:00,
2013-04-25 13:46:00,57.7,8.9,29.79,WNW,292,4.0,6.3,14,0.00,,---,0.00,VWS V14.01,2013-04-25 19:46:00,
2013-04-25 13:48:00,57.9,9.0,29.79,NW,305,5.4,6.3,14,0.00,,---,0.00,VWS V14.01,2013-04-25 19:48:00,
2013-04-25 13:49:00,57.9,9.0,29.79,WNW,290,4.0,6.3,14,0.00,,---,0.00,VWS V14.01,2013-04-25 19:49:00,
2013-04-25 13:50:00,57.9,9.0,29.79,North,6,5.8,6.3,14,0.00,,---,0.00,VWS V14.01,2013-04-25 19:50:00,
2013-04-25 13:52:00,58.1,9.2,29.79,NW,313,8.1,8.1,14,0.00,,---,0.00,VWS V14.01,2013-04-25 19:52:00,
2013-04-25 13:54:00,58.1,9.2,29.79,NW,309,3.1,8.1,14,0.00,,---,0.00,VWS V14.01,2013-04-25 19:54:00,
2013-04-25 13:55:00,58.1,9.2,29.79,WNW,294,3.6,8.1,14,0.00,,---,0.00,VWS V14.01,2013-04-25 19:55:00,
2013-04-25 13:57:00,58.3,9.3,29.79,WSW,258,5.4,8.1,14,0.00,,---,0.00,VWS V14.01,2013-04-25 19:57:00,
2013-04-25 13:59:00,58.3,9.3,29.79,West,277,5.8,8.1,14,0.00,,---,0.00,VWS V14.01,2013-04-25 19:59:00,
2013-04-25 14:00:00,58.3,9.3,29.79,WNW,284,4.0,8.1,14,0.00,,---,0.00,VWS V14.01,2013-04-25 20:00:00,
2013-04-25 14:02:00,58.1,9.2,29.79,SSW,202,5.8,5.8,14,0.00,,---,0.00,VWS V14.01,2013-04-25 20:02:00,
2013-04-25 14:04:00,57.9,9.0,29.79,SW,224,3.6,6.3,14,0.00,,---,0.00,VWS V14.01,2013-04-25 20:04:00,
2013-04-25 14:05:00,57.7,8.9,29.79,NNW,333,5.8,6.3,14,0.00,,---,0.00,VWS V14.01,2013-04-25 20:05:00,
2013-04-25 14:07:00,57.4,8.6,29.79,West,265,5.8,6.3,14,0.00,,---,0.00,VWS V14.01,2013-04-25 20:07:00,
2013-04-25 14:09:00,57.0,4.9,29.79,NW,316,4.9,6.3,12,0.00,,---,0.00,VWS V14.01,2013-04-25 20:09:00,
2013-04-25 14:10:00,56.8,9.7,29.79,WNW,299,3.1,6.3,15,0.00,,---,0.00,VWS V14.01,2013-04-25 20:10:00,
2013-04-25 14:11:00,56.8,4.8,29.79,West,270,2.7,6.3,12,0.00,,---,0.00,VWS V14.01,2013-04-25 20:11:00,
2013-04-25 14:12:00,56.7,4.6,29.79,WNW,290,6.3,8.3,12,0.00,,---,0.00,VWS V14.01,2013-04-25 20:12:00,
2013-04-25 14:14:00,56.3,4.4,29.79,NNW,331,4.9,8.3,12,0.00,,---,0.00,VWS V14.01,2013-04-25 20:14:00,
2013-04-25 14:15:00,56.3,4.4,29.79,NNW,348,2.7,3.6,12,0.00,,---,0.00,VWS V14.01,2013-04-25 20:15:00,
2013-04-25 14:16:00,56.1,4.2,29.79,WSW,253,3.6,3.6,12,0.00,,---,0.00,VWS V14.01,2013-04-25 20:16:00,
2013-04-25 14:17:00,55.9,4.1,29.79,West,265,3.6,4.0,12,0.00,,---,0.00,VWS V14.01,2013-04-25 20:17:00,
2013-04-25 14:19:00,55.9,4.1,29.79,WNW,285,3.1,6.3,12,0.00,,---,0.00,VWS V14.01,2013-04-25 20:19:00,
2013-04-25 14:20:00,55.9,4.1,29.79,WNW,294,2.7,6.3,12,0.00,,---,0.00,VWS V14.01,2013-04-25 20:20:00,
2013-04-25 14:21:00,55.9,4.1,29.79,NW,324,5.8,6.3,12,0.00,,---,0.00,VWS V14.01,2013-04-25 20:21:00,
2013-04-25 14:22:00,55.9,4.1,29.79,NNW,334,6.3,6.3,12,0.00,,---,0.00,VWS V14.01,2013-04-25 20:22:00,
2013-04-25 14:24:00,56.3,4.4,29.79,NW,317,5.4,6.3,12,0.00,,---,0.00,VWS V14.01,2013-04-25 20:24:00,
2013-04-25 14:25:00,56.3,4.4,29.79,WNW,300,2.7,6.3,12,0.00,,---,0.00,VWS V14.01,2013-04-25 20:25:00,
2013-04-25 14:26:00,56.5,4.5,29.79,West,260,3.1,6.3,12,0.00,,---,0.00,VWS V14.01,2013-04-25 20:26:00,
2013-04-25 14:27:00,56.5,4.5,29.79,NW,316,5.4,6.3,12,0.00,,---,0.00,VWS V14.01,2013-04-25 20:27:00,
2013-04-25 14:30:00,57.2,5.1,29.79,NW,307,3.6,4.9,12,0.00,,---,0.00,VWS V14.01,2013-04-25 20:30:00,
2013-04-25 14:32:00,57.9,9.0,29.79,WNW,302,5.8,5.8,14,0.00,,---,0.00,VWS V14.01,2013-04-25 20:32:00,
2013-04-25 14:33:00,58.5,6.1,29.79,WNW,289,6.3,6.3,12,0.00,,---,0.00,VWS V14.01,2013-04-25 20:33:00,
2013-04-25 14:35:00,59.0,6.5,29.79,NW,307,6.3,7.6,12,0.00,,---,0.00,VWS V14.01,2013-04-25 20:35:00,
2013-04-25 14:37:00,59.2,10.0,29.79,WNW,302,5.4,7.6,14,0.00,,---,0.00,VWS V14.01,2013-04-25 20:37:00,
2013-04-25 14:38:00,59.2,10.0,29.79,West,275,5.8,8.1,14,0.00,,---,0.00,VWS V14.01,2013-04-25 20:38:00,
2013-04-25 14:40:00,59.2,6.6,29.79,West,281,8.3,8.3,12,0.00,,---,0.00,VWS V14.01,2013-04-25 20:40:00,
2013-04-25 14:42:00,59.0,6.5,29.79,WSW,248,3.1,8.3,12,0.00,,---,0.00,VWS V14.01,2013-04-25 20:42:00,
2013-04-25 14:43:00,59.0,6.5,29.79,NNW,344,11.0,11.0,12,0.00,,---,0.00,VWS V14.01,2013-04-25 20:43:00,
2013-04-25 14:46:00,59.4,10.2,29.79,North,349,4.0,8.1,14,0.00,,---,0.00,VWS V14.01,2013-04-25 20:46:00,
2013-04-25 14:47:00,59.5,10.3,29.79,NW,326,3.1,8.1,14,0.00,,---,0.00,VWS V14.01,2013-04-25 20:47:00,
2013-04-25 14:48:00,59.7,7.0,29.79,WNW,292,5.8,8.1,12,0.00,,---,0.00,VWS V14.01,2013-04-25 20:48:00,
2013-04-25 14:49:00,59.7,7.0,29.79,SSW,194,5.8,8.1,12,0.00,,---,0.00,VWS V14.01,2013-04-25 20:49:00,
2013-04-25 14:51:00,60.1,7.3,29.79,NW,304,4.0,8.1,12,0.00,,---,0.00,VWS V14.01,2013-04-25 20:51:00,
2013-04-25 14:52:00,60.1,10.8,29.79,SW,224,3.6,8.1,14,0.00,,---,0.00,VWS V14.01,2013-04-25 20:52:00,
2013-04-25 14:53:00,60.1,10.8,29.79,WNW,301,2.2,8.1,14,0.00,,---,0.00,VWS V14.01,2013-04-25 20:53:00,
2013-04-25 14:55:00,60.3,7.5,29.79,North,8,4.0,8.1,12,0.00,,---,0.00,VWS V14.01,2013-04-25 20:55:00,
2013-04-25 14:57:00,60.6,7.8,29.79,NW,318,5.4,8.1,12,0.00,,---,0.00,VWS V14.01,2013-04-25 20:57:00,
2013-04-25 14:58:00,60.6,7.8,29.79,West,273,3.6,8.1,12,0.00,,---,0.00,VWS V14.01,2013-04-25 20:58:00,
2013-04-25 14:59:00,60.6,7.8,29.79,WNW,293,2.7,8.3,12,0.00,,---,0.00,VWS V14.01,2013-04-25 20:59:00,
2013-04-25 15:00:00,60.4,7.6,29.79,West,273,4.0,4.9,12,0.00,,---,0.00,VWS V14.01,2013-04-25 21:00:00,
2013-04-25 15:02:00,60.4,7.6,29.79,WNW,289,5.4,5.4,12,0.00,,---,0.00,VWS V14.01,2013-04-25 21:02:00,
2013-04-25 15:03:00,60.4,7.6,29.79,WNW,289,4.9,5.4,12,0.00,,---,0.00,VWS V14.01,2013-04-25 21:03:00,
2013-04-25 15:04:00,60.4,7.6,29.79,North,10,3.6,6.3,12,0.00,,---,0.00,VWS V14.01,2013-04-25 21:04:00,
2013-04-25 15:05:00,60.4,7.6,29.79,WNW,292,2.7,6.3,12,0.00,,---,0.00,VWS V14.01,2013-04-25 21:05:00,
2013-04-25 15:07:00,60.6,11.2,29.79,NW,323,3.6,6.3,14,0.00,,---,0.00,VWS V14.01,2013-04-25 21:07:00,
2013-04-25 15:08:00,60.6,7.8,29.79,WSW,247,3.6,6.3,12,0.00,,---,0.00,VWS V14.01,2013-04-25 21:08:00,
2013-04-25 15:09:00,60.8,6.0,29.79,North,0,5.8,6.3,11,0.00,,---,0.00,VWS V14.01,2013-04-25 21:09:00,
2013-04-25 15:11:00,61.0,6.1,29.79,WNW,301,8.3,8.3,11,0.00,,---,0.00,VWS V14.01,2013-04-25 21:11:00,
2013-04-25 15:12:00,60.8,6.0,29.79,NW,320,5.8,8.3,11,0.00,,---,0.00,VWS V14.01,2013-04-25 21:12:00,
2013-04-25 15:13:00,60.8,6.0,29.79,North,353,5.8,8.3,11,0.00,,---,0.00,VWS V14.01,2013-04-25 21:13:00,
2013-04-25 15:14:00,60.8,6.0,29.79,NW,310,5.4,8.3,11,0.00,,---,0.00,VWS V14.01,2013-04-25 21:14:00,
2013-04-25 15:16:00,60.8,6.0,29.79,North,0,4.0,6.3,11,0.00,,---,0.00,VWS V14.01,2013-04-25 21:16:00,
2013-04-25 15:17:00,60.8,6.0,29.79,North,350,5.8,8.3,11,0.00,,---,0.00,VWS V14.01,2013-04-25 21:17:00,
2013-04-25 15:18:00,60.6,7.8,29.79,WNW,292,5.4,8.3,12,0.00,,---,0.00,VWS V14.01,2013-04-25 21:18:00,
2013-04-25 15:19:00,60.6,7.8,29.79,WSW,253,6.3,8.3,12,0.00,,---,0.00,VWS V14.01,2013-04-25 21:19:00,
2013-04-25 15:21:00,60.4,7.6,29.79,WNW,292,2.7,8.3,12,0.00,,---,0.00,VWS V14.01,2013-04-25 21:21:00,
2013-04-25 15:22:00,60.4,7.6,29.79,WNW,299,5.4,8.3,12,0.00,,---,0.00,VWS V14.01,2013-04-25 21:22:00,
2013-04-25 15:23:00,60.4,7.6,29.79,WNW,297,5.4,10.5,12,0.00,,---,0.00,VWS V14.01,2013-04-25 21:23:00,
2013-04-25 15:24:00,60.4,7.6,29.79,NW,324,5.4,10.5,12,0.00,,---,0.00,VWS V14.01,2013-04-25 21:24:00,
2013-04-25 15:27:00,60.3,7.5,29.79,WSW,256,4.0,10.5,12,0.00,,---,0.00,VWS V14.01,2013-04-25 21:27:00,
2013-04-25 15:28:00,60.3,7.5,29.79,WSW,253,2.2,10.5,12,0.00,,---,0.00,VWS V14.01,2013-04-25 21:28:00,
2013-04-25 15:29:00,60.3,7.5,29.79,West,275,5.4,10.5,12,0.00,,---,0.00,VWS V14.01,2013-04-25 21:29:00,
2013-04-25 15:30:00,60.4,7.6,29.79,West,260,5.4,10.5,12,0.00,,---,0.00,VWS V14.01,2013-04-25 21:30:00,
2013-04-25 15:32:00,60.3,7.5,29.79,North,357,3.1,7.6,12,0.00,,---,0.00,VWS V14.01,2013-04-25 21:32:00,
2013-04-25 15:33:00,60.3,7.5,29.79,WNW,301,3.1,10.1,12,0.00,,---,0.00,VWS V14.01,2013-04-25 21:33:00,
2013-04-25 15:34:00,60.1,7.3,29.79,NW,321,5.8,10.1,12,0.00,,---,0.00,VWS V14.01,2013-04-25 21:34:00,
2013-04-25 15:35:00,59.9,7.2,29.79,West,265,4.9,10.1,12,0.00,,---,0.00,VWS V14.01,2013-04-25 21:35:00,
2013-04-25 15:37:00,59.9,7.2,29.79,NNE,14,5.8,10.1,12,0.00,,---,0.00,VWS V14.01,2013-04-25 21:37:00,
2013-04-25 15:38:00,59.9,7.2,29.79,NW,322,7.6,10.1,12,0.00,,---,0.00,VWS V14.01,2013-04-25 21:38:00,
2013-04-25 15:39:00,59.9,7.2,29.79,North,6,10.5,11.0,12,0.00,,---,0.00,VWS V14.01,2013-04-25 21:39:00,
2013-04-25 15:41:00,59.7,7.0,29.79,NNW,334,4.0,12.3,12,0.00,,---,0.00,VWS V14.01,2013-04-25 21:41:00,
2013-04-25 15:42:00,59.7,7.0,29.79,NNW,331,7.2,12.3,12,0.00,,---,0.00,VWS V14.01,2013-04-25 21:42:00,
2013-04-25 15:43:00,59.7,7.0,29.79,North,357,5.8,12.3,12,0.00,,---,0.00,VWS V14.01,2013-04-25 21:43:00,
2013-04-25 15:44:00,59.9,7.2,29.79,NW,305,5.8,12.3,12,0.00,,---,0.00,VWS V14.01,2013-04-25 21:44:00,
2013-04-25 15:46:00,59.9,7.2,29.79,WSW,242,4.9,5.8,12,0.00,,---,0.00,VWS V14.01,2013-04-25 21:46:00,
2013-04-25 15:47:00,60.1,7.3,29.79,NNW,332,2.7,5.8,12,0.00,,---,0.00,VWS V14.01,2013-04-25 21:47:00,
2013-04-25 15:48:00,60.1,7.3,29.79,NNW,332,2.2,5.8,12,0.00,,---,0.00,VWS V14.01,2013-04-25 21:48:00,
2013-04-25 15:49:00,60.3,7.5,29.79,WNW,302,3.6,5.8,12,0.00,,---,0.00,VWS V14.01,2013-04-25 21:49:00,
2013-04-25 15:52:00,60.6,7.8,29.79,NNW,329,4.0,8.7,12,0.00,,---,0.00,VWS V14.01,2013-04-25 21:52:00,
2013-04-25 15:53:00,60.6,7.8,29.79,NNW,337,5.4,8.7,12,0.00,,---,0.00,VWS V14.01,2013-04-25 21:53:00,
2013-04-25 15:54:00,60.6,7.8,29.79,North,0,10.1,10.1,12,0.00,,---,0.00,VWS V14.01,2013-04-25 21:54:00,
2013-04-25 15:55:00,60.6,7.8,29.79,NNW,328,10.5,10.5,12,0.00,,---,0.00,VWS V14.01,2013-04-25 21:55:00,
2013-04-25 15:57:00,60.4,7.6,29.79,North,0,7.6,10.5,12,0.00,,---,0.00,VWS V14.01,2013-04-25 21:57:00,
2013-04-25 15:58:00,60.3,7.5,29.79,NW,306,3.6,10.5,12,0.00,,---,0.00,VWS V14.01,2013-04-25 21:58:00,
2013-04-25 16:00:00,60.1,7.3,29.79,NNW,339,5.8,10.5,12,0.00,,---,0.00,VWS V14.01,2013-04-25 22:00:00,
2013-04-25 16:02:00,59.9,7.2,29.79,NNW,340,5.8,8.3,12,0.00,,---,0.00,VWS V14.01,2013-04-25 22:02:00,
2013-04-25 16:03:00,59.9,7.2,29.79,NNW,340,5.8,8.3,12,0.00,,---,0.00,VWS V14.01,2013-04-25 22:03:00,
2013-04-25 16:05:00,60.1,7.3,29.79,NNW,343,8.3,8.3,12,0.00,,---,0.00,VWS V14.01,2013-04-25 22:05:00,
2013-04-25 16:08:00,60.1,7.3,29.79,WSW,247,4.0,8.3,12,0.00,,---,0.00,VWS V14.01,2013-04-25 22:08:00,
2013-04-25 16:09:00,60.3,7.5,29.79,NNW,330,5.4,8.3,12,0.00,,---,0.00,VWS V14.01,2013-04-25 22:09:00,
2013-04-25 16:10:00,60.4,7.6,29.79,NNW,343,3.6,8.3,12,0.00,,---,0.00,VWS V14.01,2013-04-25 22:10:00,
2013-04-25 16:11:00,60.4,7.6,29.79,NNW,343,3.6,8.3,12,0.00,,---,0.00,VWS V14.01,2013-04-25 22:11:00,
2013-04-25 16:13:00,60.6,7.8,29.79,NNE,19,5.4,8.3,12,0.00,,---,0.00,VWS V14.01,2013-04-25 22:13:00,
2013-04-25 16:14:00,60.6,7.8,29.79,NNW,339,5.8,9.6,12,0.00,,---,0.00,VWS V14.01,2013-04-25 22:14:00,
2013-04-25 16:15:00,60.6,7.8,29.79,NW,316,4.9,5.4,12,0.00,,---,0.00,VWS V14.01,2013-04-25 22:15:00,
2013-04-25 16:16:00,60.6,7.8,29.79,WNW,298,3.6,5.4,12,0.00,,---,0.00,VWS V14.01,2013-04-25 22:16:00,
2013-04-25 16:18:00,60.6,7.8,29.79,NNW,346,3.6,6.3,12,0.00,,---,0.00,VWS V14.01,2013-04-25 22:18:00,
2013-04-25 16:19:00,60.6,7.8,29.79,WNW,292,2.7,6.3,12,0.00,,---,0.00,VWS V14.01,2013-04-25 22:19:00,
2013-04-25 16:20:00,60.6,7.8,29.79,NNW,332,5.4,6.3,12,0.00,,---,0.00,VWS V14.01,2013-04-25 22:20:00,
2013-04-25 16:21:00,60.8,6.0,29.79,NW,310,4.9,6.3,11,0.00,,---,0.00,VWS V14.01,2013-04-25 22:21:00,
2013-04-25 16:23:00,61.0,6.1,29.79,NW,315,4.9,7.2,11,0.00,,---,0.00,VWS V14.01,2013-04-25 22:23:00,
2013-04-25 16:24:00,61.2,6.3,29.79,NNW,338,4.0,7.2,11,0.00,,---,0.00,VWS V14.01,2013-04-25 22:24:00,
2013-04-25 16:25:00,61.2,6.3,29.79,NNW,338,3.6,7.2,11,0.00,,---,0.00,VWS V14.01,2013-04-25 22:25:00,
2013-04-25 16:27:00,61.2,6.3,29.79,NNW,327,3.1,7.2,11,0.00,,---,0.00,VWS V14.01,2013-04-25 22:27:00,
2013-04-25 16:29:00,61.3,6.4,29.79,WNW,298,4.5,7.2,11,0.00,,---,0.00,VWS V14.01,2013-04-25 22:29:00,
2013-04-25 16:30:00,61.5,6.5,29.79,West,272,4.0,4.0,11,0.00,,---,0.00,VWS V14.01,2013-04-25 22:30:00,
2013-04-25 16:32:00,61.7,6.7,29.79,NNW,332,4.0,7.2,11,0.00,,---,0.00,VWS V14.01,2013-04-25 22:32:00,
2013-04-25 16:34:00,61.7,6.7,29.79,NW,325,6.3,8.1,11,0.00,,---,0.00,VWS V14.01,2013-04-25 22:34:00,
2013-04-25 16:35:00,61.5,6.5,29.79,North,0,8.3,10.1,11,0.00,,---,0.00,VWS V14.01,2013-04-25 22:35:00,
2013-04-25 16:36:00,61.3,6.4,29.79,WNW,293,2.7,10.1,11,0.00,,---,0.00,VWS V14.01,2013-04-25 22:36:00,
2013-04-25 16:37:00,61.3,6.4,29.79,West,281,3.6,10.1,11,0.00,,---,0.00,VWS V14.01,2013-04-25 22:37:00,
2013-04-25 16:39:00,61.3,6.4,29.79,WSW,254,6.3,10.1,11,0.00,,---,0.00,VWS V14.01,2013-04-25 22:39:00,
2013-04-25 16:40:00,61.3,6.4,29.79,NNW,340,5.8,10.1,11,0.00,,---,0.00,VWS V14.01,2013-04-25 22:40:00,
2013-04-25 16:41:00,61.2,6.3,29.79,NW,314,8.3,10.1,11,0.00,,---,0.00,VWS V14.01,2013-04-25 22:41:00,
2013-04-25 16:42:00,61.0,6.1,29.79,NNW,331,6.7,10.1,11,0.00,,---,0.00,VWS V14.01,2013-04-25 22:42:00,
2013-04-25 16:44:00,61.0,6.1,29.79,NW,312,3.6,10.1,11,0.00,,---,0.00,VWS V14.01,2013-04-25 22:44:00,
2013-04-25 16:45:00,61.0,6.1,29.79,NNW,334,5.4,7.6,11,0.00,,---,0.00,VWS V14.01,2013-04-25 22:45:00,
2013-04-25 16:47:00,60.8,6.0,29.79,NNW,340,5.4,9.2,11,0.00,,---,0.00,VWS V14.01,2013-04-25 22:47:00,
2013-04-25 16:48:00,60.6,7.8,29.79,NW,318,7.6,12.8,12,0.00,,---,0.00,VWS V14.01,2013-04-25 22:48:00,
2013-04-25 16:49:00,60.4,7.6,29.79,North,0,8.1,12.8,12,0.00,,---,0.00,VWS V14.01,2013-04-25 22:49:00,
2013-04-25 16:50:00,60.4,7.6,29.79,North,357,4.9,12.8,12,0.00,,---,0.00,VWS V14.01,2013-04-25 22:50:00,
2013-04-25 16:51:00,60.4,7.6,29.79,North,6,4.9,12.8,12,0.00,,---,0.00,VWS V14.01,2013-04-25 22:51:00,
2013-04-25 16:52:00,60.4,7.6,29.79,WNW,294,5.4,12.8,12,0.00,,---,0.00,VWS V14.01,2013-04-25 22:52:00,
2013-04-25 16:53:00,60.4,7.6,29.79,NNE,14,6.3,12.8,12,0.00,,---,0.00,VWS V14.01,2013-04-25 22:53:00,
2013-04-25 16:55:00,60.4,7.6,29.79,WNW,300,4.0,12.8,12,0.00,,---,0.00,VWS V14.01,2013-04-25 22:55:00,
2013-04-25 16:56:00,60.4,7.6,29.79,WNW,292,3.6,12.8,12,0.00,,---,0.00,VWS V14.01,2013-04-25 22:56:00,
2013-04-25 16:58:00,60.6,7.8,29.79,NNW,338,8.1,12.8,12,0.00,,---,0.00,VWS V14.01,2013-04-25 22:58:00,
2013-04-25 17:00:00,60.6,7.8,29.79,NNW,338,5.8,5.8,12,0.00,,---,0.00,VWS V14.01,2013-04-25 23:00:00,
2013-04-25 17:01:00,60.6,7.8,29.79,NNW,341,5.8,6.3,12,0.00,,---,0.00,VWS V14.01,2013-04-25 23:01:00,
2013-04-25 17:03:00,60.4,7.6,29.79,NW,307,5.8,8.3,12,0.00,,---,0.00,VWS V14.01,2013-04-25 23:03:00,
2013-04-25 17:06:00,60.6,7.8,29.79,NNW,336,7.6,9.2,12,0.00,,---,0.00,VWS V14.01,2013-04-25 23:06:00,
2013-04-25 17:07:00,60.6,7.8,29.79,NW,321,3.6,9.2,12,0.00,,---,0.00,VWS V14.01,2013-04-25 23:07:00,
2013-04-25 17:08:00,60.6,7.8,29.79,North,357,5.4,9.2,12,0.00,,---,0.00,VWS V14.01,2013-04-25 23:08:00,
2013-04-25 17:11:00,61.0,6.1,29.79,NW,315,3.6,9.2,11,0.00,,---,0.00,VWS V14.01,2013-04-25 23:11:00,
2013-04-25 17:12:00,61.0,6.1,29.79,WNW,298,4.9,9.2,11,0.00,,---,0.00,VWS V14.01,2013-04-25 23:12:00,
2013-04-25 17:13:00,61.0,6.1,29.79,WNW,303,6.3,9.2,11,0.00,,---,0.00,VWS V14.01,2013-04-25 23:13:00,
2013-04-25 17:14:00,61.2,6.3,29.79,WNW,289,4.0,9.2,11,0.00,,---,0.00,VWS V14.01,2013-04-25 23:14:00,
2013-04-25 17:16:00,61.3,6.4,29.79,WNW,294,8.3,8.3,11,0.00,,---,0.00,VWS V14.01,2013-04-25 23:16:00,
2013-04-25 17:17:00,61.3,6.4,29.79,West,270,3.6,8.3,11,0.00,,---,0.00,VWS V14.01,2013-04-25 23:17:00,
2013-04-25 17:18:00,61.3,6.4,29.79,NW,322,4.0,8.3,11,0.00,,---,0.00,VWS V14.01,2013-04-25 23:18:00,
2013-04-25 17:19:00,61.2,6.3,29.79,NW,317,3.6,8.3,11,0.00,,---,0.00,VWS V14.01,2013-04-25 23:19:00,
2013-04-25 17:22:00,61.3,6.4,29.79,NNW,331,4.0,8.3,11,0.00,,---,0.00,VWS V14.01,2013-04-25 23:22:00,
2013-04-25 17:23:00,61.5,6.5,29.79,NNW,342,8.7,11.0,11,0.00,,---,0.00,VWS V14.01,2013-04-25 23:23:00,
2013-04-25 17:24:00,61.5,6.5,29.79,North,0,4.0,11.0,11,0.00,,---,0.00,VWS V14.01,2013-04-25 23:24:00,
2013-04-25 17:27:00,61.0,6.1,29.79,NW,320,8.1,11.0,11,0.00,,---,0.00,VWS V14.01,2013-04-25 23:27:00,
2013-04-25 17:28:00,61.0,6.1,29.79,North,357,4.0,11.0,11,0.00,,---,0.00,VWS V14.01,2013-04-25 23:28:00,
2013-04-25 17:29:00,60.6,7.8,29.79,NNW,339,5.4,11.0,12,0.00,,---,0.00,VWS V14.01,2013-04-25 23:29:00,
2013-04-25 17:32:00,60.6,7.8,29.82,NW,312,5.8,8.3,12,0.00,,---,0.00,VWS V14.01,2013-04-25 23:32:00,
2013-04-25 17:33:00,60.4,7.6,29.82,NW,326,5.4,8.3,12,0.00,,---,0.00,VWS V14.01,2013-04-25 23:33:00,
2013-04-25 17:34:00,60.4,7.6,29.82,NNW,334,5.8,8.3,12,0.00,,---,0.00,VWS V14.01,2013-04-25 23:34:00,
2013-04-25 17:37:00,60.4,7.6,29.82,NW,322,3.6,8.3,12,0.00,,---,0.00,VWS V14.01,2013-04-25 23:37:00,
2013-04-25 17:38:00,60.4,7.6,29.82,NW,322,5.8,8.3,12,0.00,,---,0.00,VWS V14.01,2013-04-25 23:38:00,
2013-04-25 17:39:00,60.4,7.6,29.82,NNW,346,3.6,8.3,12,0.00,,---,0.00,VWS V14.01,2013-04-25 23:39:00,
2013-04-25 17:43:00,60.3,7.5,29.82,WNW,291,5.4,8.3,12,0.00,,---,0.00,VWS V14.01,2013-04-25 23:43:00,
2013-04-25 17:44:00,60.4,7.6,29.82,NW,325,4.0,8.3,12,0.00,,---,0.00,VWS V14.01,2013-04-25 23:44:00,
2013-04-25 17:45:00,60.4,7.6,29.82,NW,305,3.1,8.3,12,0.00,,---,0.00,VWS V14.01,2013-04-25 23:45:00,
2013-04-25 17:48:00,60.4,7.6,29.82,WNW,285,6.3,7.6,12,0.00,,---,0.00,VWS V14.01,2013-04-25 23:48:00,
2013-04-25 17:49:00,60.4,7.6,29.82,WNW,288,5.8,7.6,12,0.00,,---,0.00,VWS V14.01,2013-04-25 23:49:00,
2013-04-25 17:50:00,60.3,7.5,29.82,NW,321,5.8,7.6,12,0.00,,---,0.00,VWS V14.01,2013-04-25 23:50:00,
2013-04-25 17:53:00,60.1,7.3,29.82,West,276,6.3,7.6,12,0.00,,---,0.00,VWS V14.01,2013-04-25 23:53:00,
2013-04-25 17:54:00,60.1,7.3,29.82,WNW,299,6.3,7.6,12,0.00,,---,0.00,VWS V14.01,2013-04-25 23:54:00,
2013-04-25 17:55:00,60.3,7.5,29.82,WNW,290,4.9,7.6,12,0.00,,---,0.00,VWS V14.01,2013-04-25 23:55:00,
2013-04-25 17:58:00,60.1,7.3,29.82,NNW,329,6.3,7.6,12,0.00,,---,0.00,VWS V14.01,2013-04-25 23:58:00,
2013-04-25 17:59:00,60.1,7.3,29.82,NNW,328,3.6,7.6,12,0.00,,---,0.00,VWS V14.01,2013-04-25 23:59:00,
2013-04-25 18:00:00,60.1,7.3,29.82,NNW,345,6.3,6.3,12,0.00,,---,0.00,VWS V14.01,2013-04-26 00:00:00,
2013-04-25 18:03:00,60.1,7.3,29.82,NW,319,7.6,7.6,12,0.00,,---,0.00,VWS V14.01,2013-04-26 00:03:00,
2013-04-25 18:04:00,59.9,7.2,29.82,NW,313,3.1,7.6,12,0.00,,---,0.00,VWS V14.01,2013-04-26 00:04:00,
2013-04-25 18:05:00,59.9,7.2,29.82,NNW,336,5.8,7.6,12,0.00,,---,0.00,VWS V14.01,2013-04-26 00:05:00,
2013-04-25 18:08:00,59.7,7.0,29.82,NW,324,4.9,7.6,12,0.00,,---,0.00,VWS V14.01,2013-04-26 00:08:00,
2013-04-25 18:09:00,59.7,7.0,29.82,NNW,329,3.1,7.6,12,0.00,,---,0.00,VWS V14.01,2013-04-26 00:09:00,
2013-04-25 18:10:00,59.5,6.9,29.82,NNW,329,3.1,7.6,12,0.00,,---,0.00,VWS V14.01,2013-04-26 00:10:00,
2013-04-25 18:11:00,59.5,6.9,29.82,NW,308,4.9,8.1,12,0.00,,---,0.00,VWS V14.01,2013-04-26 00:11:00,
2013-04-25 18:14:00,59.4,6.8,29.82,WNW,301,4.0,8.1,12,0.00,,---,0.00,VWS V14.01,2013-04-26 00:14:00,
2013-04-25 18:15:00,59.4,6.8,29.82,NW,313,5.4,8.1,12,0.00,,---,0.00,VWS V14.01,2013-04-26 00:15:00,
2013-04-25 18:16:00,59.4,6.8,29.82,West,276,3.6,6.7,12,0.00,,---,0.00,VWS V14.01,2013-04-26 00:16:00,
2013-04-25 18:19:00,59.4,6.8,29.82,WSW,238,3.1,6.7,12,0.00,,---,0.00,VWS V14.01,2013-04-26 00:19:00,
2013-04-25 18:20:00,59.4,6.8,29.82,WNW,301,4.0,6.7,12,0.00,,---,0.00,VWS V14.01,2013-04-26 00:20:00,
2013-04-25 18:22:00,59.5,6.9,29.82,NNW,334,4.5,6.7,12,0.00,,---,0.00,VWS V14.01,2013-04-26 00:22:00,
2013-04-25 18:24:00,59.5,6.9,29.82,West,271,6.3,8.1,12,0.00,,---,0.00,VWS V14.01,2013-04-26 00:24:00,
2013-04-25 18:25:00,59.4,6.8,29.82,WNW,301,3.1,8.1,12,0.00,,---,0.00,VWS V14.01,2013-04-26 00:25:00,
2013-04-25 18:27:00,59.4,6.8,29.82,West,263,4.9,8.1,12,0.00,,---,0.00,VWS V14.01,2013-04-26 00:27:00,
2013-04-25 18:29:00,59.2,6.6,29.82,SW,229,2.7,8.1,12,0.00,,---,0.00,VWS V14.01,2013-04-26 00:29:00,
2013-04-25 18:30:00,59.2,6.6,29.82,West,270,3.6,8.1,12,0.00,,---,0.00,VWS V14.01,2013-04-26 00:30:00,
2013-04-25 18:31:00,59.0,6.5,29.82,NNW,329,3.1,3.6,12,0.00,,---,0.00,VWS V14.01,2013-04-26 00:31:00,
2013-04-25 18:32:00,58.8,6.3,29.82,NW,326,3.6,4.0,12,0.00,,---,0.00,VWS V14.01,2013-04-26 00:32:00,
2013-04-25 18:35:00,58.8,6.3,29.82,WNW,298,3.6,4.9,12,0.00,,---,0.00,VWS V14.01,2013-04-26 00:35:00,
2013-04-25 18:36:00,58.8,6.3,29.82,NW,305,2.2,4.9,12,0.00,,---,0.00,VWS V14.01,2013-04-26 00:36:00,
2013-04-25 18:38:00,58.6,6.2,29.82,West,281,4.9,6.3,12,0.00,,---,0.00,VWS V14.01,2013-04-26 00:38:00,
2013-04-25 18:40:00,58.5,6.1,29.82,WSW,254,3.1,6.3,12,0.00,,---,0.00,VWS V14.01,2013-04-26 00:40:00,
2013-04-25 18:41:00,58.5,6.1,29.82,WSW,254,3.1,6.3,12,0.00,,---,0.00,VWS V14.01,2013-04-26 00:41:00,
2013-04-25 18:43:00,58.5,6.1,29.82,WNW,285,3.1,6.3,12,0.00,,---,0.00,VWS V14.01,2013-04-26 00:43:00,
2013-04-25 18:46:00,58.5,6.1,29.85,SW,216,3.1,4.0,12,0.00,,---,0.00,VWS V14.01,2013-04-26 00:46:00,
2013-04-25 18:49:00,58.5,6.1,29.85,WNW,294,2.7,4.0,12,0.00,,---,0.00,VWS V14.01,2013-04-26 00:49:00,
2013-04-25 18:51:00,58.3,5.9,29.85,West,270,2.7,4.0,12,0.00,,---,0.00,VWS V14.01,2013-04-26 00:51:00,
2013-04-25 18:54:00,58.1,5.8,29.85,WNW,298,4.0,5.4,12,0.00,,---,0.00,VWS V14.01,2013-04-26 00:54:00,
2013-04-25 18:56:00,57.9,5.6,29.85,SW,234,5.4,6.7,12,0.00,,---,0.00,VWS V14.01,2013-04-26 00:56:00,
2013-04-25 18:57:00,57.9,5.6,29.85,West,266,6.3,6.7,12,0.00,,---,0.00,VWS V14.01,2013-04-26 00:57:00,
2013-04-25 18:59:00,57.7,5.5,29.85,NNW,348,3.1,6.7,12,0.00,,---,0.00,VWS V14.01,2013-04-26 00:59:00,
2013-04-25 19:01:00,57.6,5.3,29.85,West,272,4.0,4.0,12,0.00,,---,0.00,VWS V14.01,2013-04-26 01:01:00,
2013-04-25 19:02:00,57.6,5.3,29.85,SW,222,3.6,4.9,12,0.00,,---,0.00,VWS V14.01,2013-04-26 01:02:00,
2013-04-25 19:04:00,57.4,5.2,29.85,West,264,5.4,5.4,12,0.00,,---,0.00,VWS V14.01,2013-04-26 01:04:00,
2013-04-25 19:06:00,57.2,5.1,29.85,NW,304,3.6,5.4,12,0.00,,---,0.00,VWS V14.01,2013-04-26 01:06:00,
2013-04-25 19:07:00,57.2,5.1,29.85,West,279,3.1,5.4,12,0.00,,---,0.00,VWS V14.01,2013-04-26 01:07:00,
2013-04-25 19:10:00,57.0,4.9,29.85,WNW,298,2.2,5.4,12,0.00,,---,0.00,VWS V14.01,2013-04-26 01:10:00,
2013-04-25 19:12:00,57.0,4.9,29.85,NNW,331,3.1,5.4,12,0.00,,---,0.00,VWS V14.01,2013-04-26 01:12:00,
2013-04-25 19:13:00,57.0,4.9,29.85,NNW,328,3.6,5.4,12,0.00,,---,0.00,VWS V14.01,2013-04-26 01:13:00,
2013-04-25 19:15:00,56.8,4.8,29.85,NW,319,2.7,5.4,12,0.00,,---,0.00,VWS V14.01,2013-04-26 01:15:00,
2013-04-25 19:17:00,56.8,4.8,29.85,NW,318,3.6,7.2,12,0.00,,---,0.00,VWS V14.01,2013-04-26 01:17:00,
2013-04-25 19:19:00,56.8,4.8,29.85,WNW,296,5.8,7.2,12,0.00,,---,0.00,VWS V14.01,2013-04-26 01:19:00,
2013-04-25 19:20:00,56.7,4.6,29.85,WNW,302,4.0,7.2,12,0.00,,---,0.00,VWS V14.01,2013-04-26 01:20:00,
2013-04-25 19:22:00,56.7,4.6,29.85,North,357,5.4,7.2,12,0.00,,---,0.00,VWS V14.01,2013-04-26 01:22:00,
2013-04-25 19:24:00,56.7,4.6,29.85,NNW,335,4.0,7.2,12,0.00,,---,0.00,VWS V14.01,2013-04-26 01:24:00,
2013-04-25 19:25:00,56.7,4.6,29.85,West,259,4.0,7.2,12,0.00,,---,0.00,VWS V14.01,2013-04-26 01:25:00,
2013-04-25 19:27:00,56.7,4.6,29.85,NW,315,3.6,7.2,12,0.00,,---,0.00,VWS V14.01,2013-04-26 01:27:00,
2013-04-25 19:28:00,56.7,4.6,29.85,WNW,298,3.6,7.2,12,0.00,,---,0.00,VWS V14.01,2013-04-26 01:28:00,
2013-04-25 19:29:00,56.5,4.5,29.85,WNW,298,2.2,7.2,12,0.00,,---,0.00,VWS V14.01,2013-04-26 01:29:00,
2013-04-25 19:31:00,56.5,4.5,29.85,NNW,332,2.2,4.0,12,0.00,,---,0.00,VWS V14.01,2013-04-26 01:31:00,
2013-04-25 19:33:00,56.3,4.4,29.85,WNW,300,2.2,4.0,12,0.00,,---,0.00,VWS V14.01,2013-04-26 01:33:00,
2013-04-25 19:34:00,56.3,4.4,29.85,NNW,335,2.7,8.1,12,0.00,,---,0.00,VWS V14.01,2013-04-26 01:34:00,
2013-04-25 19:36:00,56.1,4.2,29.85,West,260,4.9,8.1,12,0.00,,---,0.00,VWS V14.01,2013-04-26 01:36:00,
2013-04-25 19:38:00,55.9,4.1,29.85,WNW,303,4.0,8.1,12,0.00,,---,0.00,VWS V14.01,2013-04-26 01:38:00,
2013-04-25 19:39:00,55.9,4.1,29.85,WSW,244,6.3,8.1,12,0.00,,---,0.00,VWS V14.01,2013-04-26 01:39:00,
2013-04-25 19:42:00,55.9,4.1,29.85,NW,326,4.9,8.1,12,0.00,,---,0.00,VWS V14.01,2013-04-26 01:42:00,
2013-04-25 19:43:00,55.9,4.1,29.85,WNW,300,6.3,8.1,12,0.00,,---,0.00,VWS V14.01,2013-04-26 01:43:00,
2013-04-25 19:45:00,55.9,4.1,29.85,WNW,302,3.6,8.1,12,0.00,,---,0.00,VWS V14.01,2013-04-26 01:45:00,
2013-04-25 19:47:00,55.8,3.9,29.85,NNW,338,2.7,5.4,12,0.00,,---,0.00,VWS V14.01,2013-04-26 01:47:00,
2013-04-25 19:48:00,55.8,3.9,29.85,NW,312,3.6,5.8,12,0.00,,---,0.00,VWS V14.01,2013-04-26 01:48:00,
2013-04-25 19:49:00,55.8,3.9,29.85,North,2,4.0,5.8,12,0.00,,---,0.00,VWS V14.01,2013-04-26 01:49:00,
2013-04-25 19:50:00,55.8,3.9,29.85,North,353,4.9,5.8,12,0.00,,---,0.00,VWS V14.01,2013-04-26 01:50:00,
2013-04-25 19:52:00,55.6,3.8,29.85,NNW,340,3.6,5.8,12,0.00,,---,0.00,VWS V14.01,2013-04-26 01:52:00,
2013-04-25 19:53:00,55.6,3.8,29.85,NNW,346,4.0,5.8,12,0.00,,---,0.00,VWS V14.01,2013-04-26 01:53:00,
2013-04-25 19:55:00,55.6,3.8,29.85,NW,325,3.1,5.8,12,0.00,,---,0.00,VWS V14.01,2013-04-26 01:55:00,
2013-04-25 19:57:00,55.4,3.7,29.85,North,4,4.0,5.8,12,0.00,,---,0.00,VWS V14.01,2013-04-26 01:57:00,
2013-04-25 19:58:00,55.4,3.7,29.85,NW,315,2.2,5.8,12,0.00,,---,0.00,VWS V14.01,2013-04-26 01:58:00,
2013-04-25 19:59:00,55.2,5.2,29.85,WNW,282,4.0,5.8,13,0.00,,---,0.00,VWS V14.01,2013-04-26 01:59:00,
2013-04-25 20:00:00,55.2,5.2,29.85,NNW,335,3.6,5.8,13,0.00,,---,0.00,VWS V14.01,2013-04-26 02:00:00,
2013-04-25 20:02:00,54.9,5.0,29.88,WNW,298,4.0,5.8,13,0.00,,---,0.00,VWS V14.01,2013-04-26 02:02:00,
2013-04-25 20:03:00,54.9,5.0,29.88,NNW,338,5.4,5.8,13,0.00,,---,0.00,VWS V14.01,2013-04-26 02:03:00,
2013-04-25 20:04:00,54.9,5.0,29.88,NW,316,3.1,5.8,13,0.00,,---,0.00,VWS V14.01,2013-04-26 02:04:00,
2013-04-25 20:05:00,54.9,5.0,29.88,NW,321,6.3,6.3,13,0.00,,---,0.00,VWS V14.01,2013-04-26 02:05:00,
2013-04-25 20:06:00,54.7,4.8,29.88,WNW,299,3.1,6.3,13,0.00,,---,0.00,VWS V14.01,2013-04-26 02:06:00,
2013-04-25 20:08:00,54.7,4.8,29.88,North,1,4.0,6.3,13,0.00,,---,0.00,VWS V14.01,2013-04-26 02:08:00,
2013-04-25 20:09:00,54.7,4.8,29.88,North,1,4.0,6.3,13,0.00,,---,0.00,VWS V14.01,2013-04-26 02:09:00,
2013-04-25 20:10:00,54.5,4.7,29.88,NW,310,2.7,6.3,13,0.00,,---,0.00,VWS V14.01,2013-04-26 02:10:00,
2013-04-25 20:11:00,54.5,4.7,29.88,North,349,3.1,6.3,13,0.00,,---,0.00,VWS V14.01,2013-04-26 02:11:00,
2013-04-25 20:13:00,54.3,4.5,29.88,NNW,332,4.0,6.3,13,0.00,,---,0.00,VWS V14.01,2013-04-26 02:13:00,
2013-04-25 20:14:00,54.1,4.4,29.88,NNW,328,2.7,6.3,13,0.00,,---,0.00,VWS V14.01,2013-04-26 02:14:00,
2013-04-25 20:15:00,54.0,4.2,29.88,NW,312,2.7,3.1,13,0.00,,---,0.00,VWS V14.01,2013-04-26 02:15:00,
2013-04-25 20:16:00,54.0,4.2,29.88,NW,320,4.0,4.0,13,0.00,,---,0.00,VWS V14.01,2013-04-26 02:16:00,
2013-04-25 20:18:00,53.8,4.1,29.88,North,353,3.6,4.0,13,0.00,,---,0.00,VWS V14.01,2013-04-26 02:18:00,
2013-04-25 20:19:00,53.6,4.0,29.88,NW,310,2.7,4.0,13,0.00,,---,0.00,VWS V14.01,2013-04-26 02:19:00,
2013-04-25 20:20:00,53.6,4.0,29.88,NW,310,2.7,4.0,13,0.00,,---,0.00,VWS V14.01,2013-04-26 02:20:00,
2013-04-25 20:21:00,53.6,4.0,29.88,NW,311,2.7,4.0,13,0.00,,---,0.00,VWS V14.01,2013-04-26 02:21:00,
2013-04-25 20:23:00,53.2,3.7,29.88,WNW,296,3.6,4.0,13,0.00,,---,0.00,VWS V14.01,2013-04-26 02:23:00,
2013-04-25 20:24:00,53.2,3.7,29.88,North,357,4.0,4.0,13,0.00,,---,0.00,VWS V14.01,2013-04-26 02:24:00,
2013-04-25 20:25:00,53.2,3.7,29.88,WNW,283,3.1,4.0,13,0.00,,---,0.00,VWS V14.01,2013-04-26 02:25:00,
2013-04-25 20:26:00,53.1,3.5,29.88,West,273,4.0,4.0,13,0.00,,---,0.00,VWS V14.01,2013-04-26 02:26:00,
2013-04-25 20:29:00,52.9,3.4,29.88,NNE,20,4.0,4.0,13,0.00,,---,0.00,VWS V14.01,2013-04-26 02:29:00,
2013-04-25 20:30:00,52.9,3.4,29.88,SW,229,4.9,5.4,13,0.00,,---,0.00,VWS V14.01,2013-04-26 02:30:00,
2013-04-25 20:31:00,52.7,3.2,29.88,North,357,4.0,4.9,13,0.00,,---,0.00,VWS V14.01,2013-04-26 02:31:00,
2013-04-25 20:34:00,52.5,3.1,29.88,NW,315,2.7,4.9,13,0.00,,---,0.00,VWS V14.01,2013-04-26 02:34:00,
2013-04-25 20:35:00,52.5,3.1,29.88,NW,309,4.0,4.9,13,0.00,,---,0.00,VWS V14.01,2013-04-26 02:35:00,
2013-04-25 20:36:00,52.3,3.0,29.88,NW,310,2.7,4.9,13,0.00,,---,0.00,VWS V14.01,2013-04-26 02:36:00,
2013-04-25 20:37:00,52.3,3.0,29.88,NW,313,2.7,4.9,13,0.00,,---,0.00,VWS V14.01,2013-04-26 02:37:00,
2013-04-25 20:39:00,52.2,2.8,29.88,NW,307,2.7,4.9,13,0.00,,---,0.00,VWS V14.01,2013-04-26 02:39:00,
2013-04-25 20:40:00,52.2,2.8,29.88,NW,316,2.7,4.9,13,0.00,,---,0.00,VWS V14.01,2013-04-26 02:40:00,
2013-04-25 20:41:00,52.2,2.8,29.88,NW,316,2.2,4.9,13,0.00,,---,0.00,VWS V14.01,2013-04-26 02:41:00,
2013-04-25 20:42:00,52.0,2.7,29.88,NW,316,2.2,4.9,13,0.00,,---,0.00,VWS V14.01,2013-04-26 02:42:00,
2013-04-25 20:45:00,51.6,4.0,29.88,WNW,303,0.0,4.9,14,0.00,,---,0.00,VWS V14.01,2013-04-26 02:45:00,
2013-04-25 20:46:00,51.6,4.0,29.91,WNW,301,0.0,2.7,14,0.00,,---,0.00,VWS V14.01,2013-04-26 02:46:00,
2013-04-25 20:47:00,51.6,4.0,29.91,WNW,301,0.0,2.7,14,0.00,,---,0.00,VWS V14.01,2013-04-26 02:47:00,
2013-04-25 20:50:00,51.3,3.7,29.91,WNW,292,2.2,2.7,14,0.00,,---,0.00,VWS V14.01,2013-04-26 02:50:00,
2013-04-25 20:51:00,51.1,3.6,29.91,WNW,292,0.0,2.7,14,0.00,,---,0.00,VWS V14.01,2013-04-26 02:51:00,
2013-04-25 20:52:00,51.1,3.6,29.91,ESE,115,6.7,6.7,14,0.00,,---,0.00,VWS V14.01,2013-04-26 02:52:00,
2013-04-25 20:55:00,51.1,3.6,29.91,ESE,115,2.2,6.7,14,0.00,,---,0.00,VWS V14.01,2013-04-26 02:55:00,
2013-04-25 20:57:00,50.9,3.4,29.91,ESE,115,0.0,6.7,14,0.00,,---,0.00,VWS V14.01,2013-04-26 02:57:00,
2013-04-25 21:00:00,50.5,3.1,29.91,ESE,115,0.0,0.0,14,0.00,,---,0.00,VWS V14.01,2013-04-26 03:00:00,
2013-04-25 21:01:00,50.5,3.1,29.91,ESE,115,0.0,0.0,14,0.00,,---,0.00,VWS V14.01,2013-04-26 03:01:00,
2013-04-25 21:02:00,50.4,3.0,29.91,ESE,115,0.0,0.0,14,0.00,,---,0.00,VWS V14.01,2013-04-26 03:02:00,
2013-04-25 21:05:00,50.0,2.7,29.91,ESE,115,0.0,0.0,14,0.00,,---,0.00,VWS V14.01,2013-04-26 03:05:00,
2013-04-25 21:06:00,50.0,2.7,29.91,ESE,115,0.0,0.0,14,0.00,,---,0.00,VWS V14.01,2013-04-26 03:06:00,
2013-04-25 21:07:00,49.8,2.5,29.91,ESE,115,0.0,0.0,14,0.00,,---,0.00,VWS V14.01,2013-04-26 03:07:00,
2013-04-25 21:08:00,49.8,2.5,29.91,ESE,115,0.0,0.0,14,0.00,,---,0.00,VWS V14.01,2013-04-26 03:08:00,
2013-04-25 21:11:00,49.5,2.3,29.91,ESE,115,0.0,2.2,14,0.00,,---,0.00,VWS V14.01,2013-04-26 03:11:00,
2013-04-25 21:12:00,49.3,2.1,29.91,ESE,115,0.0,2.2,14,0.00,,---,0.00,VWS V14.01,2013-04-26 03:12:00,
2013-04-25 21:13:00,49.3,2.1,29.91,ESE,115,0.0,2.2,14,0.00,,---,0.00,VWS V14.01,2013-04-26 03:13:00,
2013-04-25 21:16:00,49.3,2.1,29.91,ESE,115,0.0,0.0,14,0.00,,---,0.00,VWS V14.01,2013-04-26 03:16:00,
2013-04-25 21:17:00,49.1,2.0,29.91,ESE,115,0.0,2.2,14,0.00,,---,0.00,VWS V14.01,2013-04-26 03:17:00,
2013-04-25 21:18:00,49.1,2.0,29.91,ESE,115,0.0,2.2,14,0.00,,---,0.00,VWS V14.01,2013-04-26 03:18:00,
2013-04-25 21:21:00,49.1,2.0,29.91,ESE,115,0.0,2.2,14,0.00,,---,0.00,VWS V14.01,2013-04-26 03:21:00,
2013-04-25 21:22:00,49.1,2.0,29.91,ESE,115,0.0,2.2,14,0.00,,---,0.00,VWS V14.01,2013-04-26 03:22:00,
2013-04-25 21:23:00,49.1,2.0,29.91,ESE,115,3.1,3.1,14,0.00,,---,0.00,VWS V14.01,2013-04-26 03:23:00,
2013-04-25 21:26:00,49.1,4.9,29.91,ESE,115,2.2,3.1,16,0.00,,---,0.00,VWS V14.01,2013-04-26 03:26:00,
2013-04-25 21:27:00,49.1,4.9,29.91,ESE,115,2.2,3.1,16,0.00,,---,0.00,VWS V14.01,2013-04-26 03:27:00,
2013-04-25 21:28:00,49.1,2.0,29.91,SW,218,3.6,3.6,14,0.00,,---,0.00,VWS V14.01,2013-04-26 03:28:00,
2013-04-25 21:31:00,49.1,4.9,29.94,WNW,289,0.0,2.7,16,0.00,,---,0.00,VWS V14.01,2013-04-26 03:31:00,
2013-04-25 21:32:00,49.1,4.9,29.94,WNW,289,2.2,2.7,16,0.00,,---,0.00,VWS V14.01,2013-04-26 03:32:00,
2013-04-25 21:33:00,49.1,4.9,29.94,WNW,289,2.2,2.7,16,0.00,,---,0.00,VWS V14.01,2013-04-26 03:33:00,
2013-04-25 21:34:00,49.3,5.0,29.94,NW,307,2.7,2.7,16,0.00,,---,0.00,VWS V14.01,2013-04-26 03:34:00,
2013-04-25 21:36:00,49.3,5.0,29.94,WSW,256,0.0,3.1,16,0.00,,---,0.00,VWS V14.01,2013-04-26 03:36:00,
2013-04-25 21:37:00,49.3,5.0,29.94,West,263,0.0,3.1,16,0.00,,---,0.00,VWS V14.01,2013-04-26 03:37:00,
2013-04-25 21:38:00,49.3,5.0,29.94,WNW,287,2.2,3.1,16,0.00,,---,0.00,VWS V14.01,2013-04-26 03:38:00,
2013-04-25 21:39:00,49.3,5.0,29.94,WNW,287,2.2,3.1,16,0.00,,---,0.00,VWS V14.01,2013-04-26 03:39:00,
2013-04-25 21:42:00,49.3,5.0,29.94,WNW,287,0.0,3.1,16,0.00,,---,0.00,VWS V14.01,2013-04-26 03:42:00,
2013-04-25 21:43:00,49.3,5.0,29.94,WNW,287,0.0,3.1,16,0.00,,---,0.00,VWS V14.01,2013-04-26 03:43:00,
2013-04-25 21:44:00,49.3,5.0,29.94,WNW,287,0.0,3.1,16,0.00,,---,0.00,VWS V14.01,2013-04-26 03:44:00,
2013-04-25 21:47:00,49.1,4.9,29.94,NW,315,2.7,2.7,16,0.00,,---,0.00,VWS V14.01,2013-04-26 03:47:00,
2013-04-25 21:48:00,49.1,4.9,29.94,NNW,327,2.7,2.7,16,0.00,,---,0.00,VWS V14.01,2013-04-26 03:48:00,
2013-04-25 21:50:00,49.1,4.9,29.94,West,278,2.7,3.6,16,0.00,,---,0.00,VWS V14.01,2013-04-26 03:50:00,
2013-04-25 21:53:00,49.1,4.9,29.94,WNW,284,3.1,3.6,16,0.00,,---,0.00,VWS V14.01,2013-04-26 03:53:00,
2013-04-25 21:54:00,49.3,5.0,29.94,WNW,289,0.0,3.6,16,0.00,,---,0.00,VWS V14.01,2013-04-26 03:54:00,
2013-04-25 21:55:00,49.3,5.0,29.94,WSW,245,2.7,4.0,16,0.00,,---,0.00,VWS V14.01,2013-04-26 03:55:00,
2013-04-25 21:58:00,49.8,5.4,29.94,WNW,292,3.6,5.8,16,0.00,,---,0.00,VWS V14.01,2013-04-26 03:58:00,
2013-04-25 21:59:00,50.0,5.6,29.94,West,279,3.1,5.8,16,0.00,,---,0.00,VWS V14.01,2013-04-26 03:59:00,
2013-04-25 22:00:00,50.0,5.6,29.94,WNW,286,3.1,5.8,16,0.00,,---,0.00,VWS V14.01,2013-04-26 04:00:00,
2013-04-25 22:01:00,50.2,5.7,29.94,West,266,4.0,4.0,16,0.00,,---,0.00,VWS V14.01,2013-04-26 04:01:00,
2013-04-25 22:06:00,50.5,6.0,29.94,West,277,2.7,5.4,16,0.00,,---,0.00,VWS V14.01,2013-04-26 04:06:00,
2013-04-25 22:11:00,50.5,6.0,29.94,WNW,287,0.0,5.4,16,0.00,,---,0.00,VWS V14.01,2013-04-26 04:11:00,
2013-04-25 22:16:00,50.0,5.6,29.94,West,272,2.2,4.9,16,0.00,,---,0.00,VWS V14.01,2013-04-26 04:16:00,
2013-04-25 22:17:00,50.0,5.6,29.94,West,274,3.1,4.9,16,0.00,,---,0.00,VWS V14.01,2013-04-26 04:17:00,
2013-04-25 22:21:00,49.6,5.3,29.94,WSW,250,0.0,4.9,16,0.00,,---,0.00,VWS V14.01,2013-04-26 04:21:00,
2013-04-25 22:22:00,49.6,5.3,29.94,WSW,250,0.0,4.9,16,0.00,,---,0.00,VWS V14.01,2013-04-26 04:22:00,
2013-04-25 22:26:00,49.3,5.0,29.94,SW,222,0.0,4.9,16,0.00,,---,0.00,VWS V14.01,2013-04-26 04:26:00,
2013-04-25 22:27:00,49.3,5.0,29.94,SW,222,0.0,4.9,16,0.00,,---,0.00,VWS V14.01,2013-04-26 04:27:00,
2013-04-25 22:32:00,49.1,4.9,29.97,West,271,2.2,3.6,16,0.00,,---,0.00,VWS V14.01,2013-04-26 04:32:00,
2013-04-25 22:37:00,48.9,4.7,29.97,West,271,0.0,3.6,16,0.00,,---,0.00,VWS V14.01,2013-04-26 04:37:00,
2013-04-25 22:38:00,48.9,4.7,29.97,West,271,0.0,3.6,16,0.00,,---,0.00,VWS V14.01,2013-04-26 04:38:00,
2013-04-25 22:42:00,48.7,4.6,29.97,WSW,258,2.7,3.6,16,0.00,,---,0.00,VWS V14.01,2013-04-26 04:42:00,
2013-04-25 22:43:00,48.7,4.6,29.97,West,260,2.2,3.6,16,0.00,,---,0.00,VWS V14.01,2013-04-26 04:43:00,
2013-04-25 22:47:00,48.6,4.4,29.94,WSW,240,0.0,2.7,16,0.00,,---,0.00,VWS V14.01,2013-04-26 04:47:00,
2013-04-25 22:48:00,48.4,4.3,29.94,WSW,240,0.0,2.7,16,0.00,,---,0.00,VWS V14.01,2013-04-26 04:48:00,
2013-04-25 22:52:00,48.0,5.3,29.94,SSW,201,2.7,3.1,17,0.00,,---,0.00,VWS V14.01,2013-04-26 04:52:00,
2013-04-25 22:53:00,48.0,7.7,29.94,SSW,202,2.2,3.1,19,0.00,,---,0.00,VWS V14.01,2013-04-26 04:53:00,
2013-04-25 22:57:00,48.2,7.9,29.94,SW,217,0.0,3.6,19,0.00,,---,0.00,VWS V14.01,2013-04-26 04:57:00,
2013-04-25 22:58:00,48.4,8.0,29.94,SW,217,2.7,3.6,19,0.00,,---,0.00,VWS V14.01,2013-04-26 04:58:00,
2013-04-25 23:02:00,48.4,8.0,29.97,SSW,207,0.0,3.1,19,0.00,,---,0.00,VWS V14.01,2013-04-26 05:02:00,
2013-04-25 23:03:00,48.4,8.0,29.97,SSW,207,0.0,3.1,19,0.00,,---,0.00,VWS V14.01,2013-04-26 05:03:00,
2013-04-25 23:04:00,48.4,8.0,29.97,SSW,207,0.0,3.1,19,0.00,,---,0.00,VWS V14.01,2013-04-26 05:04:00,
2013-04-25 23:07:00,48.2,7.9,29.97,SSW,207,2.7,3.1,19,0.00,,---,0.00,VWS V14.01,2013-04-26 05:07:00,
2013-04-25 23:08:00,48.2,7.9,29.97,SSW,208,3.1,3.1,19,0.00,,---,0.00,VWS V14.01,2013-04-26 05:08:00,
2013-04-25 23:09:00,48.0,7.7,29.97,WSW,250,3.6,4.0,19,0.00,,---,0.00,VWS V14.01,2013-04-26 05:09:00,
2013-04-25 23:12:00,48.2,7.9,29.97,WSW,247,0.0,4.0,19,0.00,,---,0.00,VWS V14.01,2013-04-26 05:12:00,
2013-04-25 23:13:00,48.4,8.0,29.97,West,278,3.6,4.0,19,0.00,,---,0.00,VWS V14.01,2013-04-26 05:13:00,
2013-04-25 23:14:00,48.4,8.0,29.97,WNW,298,0.0,4.0,19,0.00,,---,0.00,VWS V14.01,2013-04-26 05:14:00,
2013-04-25 23:15:00,48.4,8.0,29.94,WNW,291,2.7,2.7,19,0.00,,---,0.00,VWS V14.01,2013-04-26 05:15:00,
2013-04-25 23:17:00,48.4,8.0,29.94,SSW,198,4.0,4.0,19,0.00,,---,0.00,VWS V14.01,2013-04-26 05:17:00,
2013-04-25 23:18:00,48.4,8.0,29.94,West,272,2.7,4.0,19,0.00,,---,0.00,VWS V14.01,2013-04-26 05:18:00,
2013-04-25 23:19:00,48.6,8.2,29.94,WSW,256,0.0,4.0,19,0.00,,---,0.00,VWS V14.01,2013-04-26 05:19:00,
2013-04-25 23:21:00,48.6,8.2,29.94,WSW,256,2.2,4.0,19,0.00,,---,0.00,VWS V14.01,2013-04-26 05:21:00,
2013-04-25 23:23:00,48.4,8.0,29.94,WSW,252,0.0,4.0,19,0.00,,---,0.00,VWS V14.01,2013-04-26 05:23:00,
2013-04-25 23:24:00,48.4,8.0,29.94,SW,234,0.0,4.0,19,0.00,,---,0.00,VWS V14.01,2013-04-26 05:24:00,
2013-04-25 23:25:00,48.4,8.0,29.94,SW,234,2.2,4.0,19,0.00,,---,0.00,VWS V14.01,2013-04-26 05:25:00,
2013-04-25 23:26:00,48.4,8.0,29.94,SW,234,0.0,4.0,19,0.00,,---,0.00,VWS V14.01,2013-04-26 05:26:00,
2013-04-25 23:28:00,48.2,7.9,29.94,SSW,209,2.2,4.0,19,0.00,,---,0.00,VWS V14.01,2013-04-26 05:28:00,
2013-04-25 23:29:00,48.2,7.9,29.94,SSW,209,2.2,4.0,19,0.00,,---,0.00,VWS V14.01,2013-04-26 05:29:00,
2013-04-25 23:30:00,48.0,7.7,29.94,WNW,287,3.6,3.6,19,0.00,,---,0.00,VWS V14.01,2013-04-26 05:30:00,
2013-04-25 23:31:00,48.0,7.7,29.97,West,277,0.0,3.6,19,0.00,,---,0.00,VWS V14.01,2013-04-26 05:31:00,
2013-04-25 23:33:00,47.8,7.6,29.97,SSW,197,3.1,3.6,19,0.00,,---,0.00,VWS V14.01,2013-04-26 05:33:00,
2013-04-25 23:34:00,47.8,7.6,29.97,SSW,197,2.7,3.6,19,0.00,,---,0.00,VWS V14.01,2013-04-26 05:34:00,
2013-04-25 23:35:00,47.8,7.6,29.97,SSW,198,0.0,3.6,19,0.00,,---,0.00,VWS V14.01,2013-04-26 05:35:00,
2013-04-25 23:36:00,47.8,7.6,29.97,SSW,198,0.0,3.6,19,0.00,,---,0.00,VWS V14.01,2013-04-26 05:36:00,
2013-04-25 23:37:00,47.7,7.4,29.97,SSW,198,0.0,3.6,19,0.00,,---,0.00,VWS V14.01,2013-04-26 05:37:00,
2013-04-25 23:38:00,47.7,7.4,29.97,SSW,213,3.1,3.6,19,0.00,,---,0.00,VWS V14.01,2013-04-26 05:38:00,
2013-04-25 23:39:00,47.7,7.4,29.97,SSW,213,0.0,3.6,19,0.00,,---,0.00,VWS V14.01,2013-04-26 05:39:00,
2013-04-25 23:40:00,47.5,7.3,29.97,SSW,196,2.7,3.6,19,0.00,,---,0.00,VWS V14.01,2013-04-26 05:40:00,
2013-04-25 23:42:00,47.7,7.4,29.97,SW,217,3.1,5.4,19,0.00,,---,0.00,VWS V14.01,2013-04-26 05:42:00,
2013-04-25 23:44:00,47.7,7.4,29.97,SW,214,2.7,5.4,19,0.00,,---,0.00,VWS V14.01,2013-04-26 05:44:00,
2013-04-25 23:46:00,47.7,7.4,29.97,SW,230,3.1,3.6,19,0.00,,---,0.00,VWS V14.01,2013-04-26 05:46:00,
2013-04-25 23:47:00,47.7,7.4,29.97,SW,214,3.6,4.0,19,0.00,,---,0.00,VWS V14.01,2013-04-26 05:47:00,
2013-04-25 23:49:00,47.8,7.6,29.97,SW,216,2.7,4.0,19,0.00,,---,0.00,VWS V14.01,2013-04-26 05:49:00,
2013-04-25 23:51:00,47.8,7.6,29.97,SSW,205,3.6,4.0,19,0.00,,---,0.00,VWS V14.01,2013-04-26 05:51:00,
2013-04-25 23:52:00,47.8,7.6,29.97,SSW,196,4.5,5.4,19,0.00,,---,0.00,VWS V14.01,2013-04-26 05:52:00,
2013-04-25 23:54:00,47.8,7.6,29.97,WSW,243,0.0,5.4,19,0.00,,---,0.00,VWS V14.01,2013-04-26 05:54:00,
2013-04-25 23:56:00,48.0,7.7,29.97,SSW,201,3.1,5.4,19,0.00,,---,0.00,VWS V14.01,2013-04-26 05:56:00,
2013-04-25 23:57:00,48.0,7.7,29.97,SSW,203,2.7,5.4,19,0.00,,---,0.00,VWS V14.01,2013-04-26 05:57:00,
2013-04-25 23:58:00,48.0,7.7,29.97,SSW,203,0.0,5.4,19,0.00,,---,0.00,VWS V14.01,2013-04-26 05:58:00,
2013-04-25 23:59:00,48.0,7.7,29.97,SSW,203,2.7,5.4,19,0.00,,---,0.00,VWS V14.01,2013-04-26 05:59:00,